| time (UTC) | temp C | wind direction | speed KPH | gust KPH | rain 1hr cm | rain 24hr cm | rain mn cm | humidity % | barometer mb |
| 20260507213604 | 10 | 0 | 0.0 | 0.0 | 0.00 | 0.00 | 0.00 | 84 | 1016.4 |
| 20260507213503 | 10 | 0 | 0.0 | 0.0 | 0.00 | 0.00 | 0.00 | 84 | 1016.5 |
| 20260507213303 | 10 | 0 | 0.0 | 0.0 | 0.00 | 0.00 | 0.00 | 84 | 1016.3 |
| 20260507213203 | 10 | 0 | 0.0 | 0.0 | 0.00 | 0.00 | 0.00 | 84 | 1016.3 |
| 20260507213104 | 10 | 0 | 0.0 | 0.0 | 0.00 | 0.00 | 0.00 | 84 | 1016.2 |
| 20260507212917 | 10 | 0 | 0.0 | 0.0 | 0.00 | 0.00 | 0.00 | 84 | 1016.3 |
| 20260507212903 | 10 | 0 | 0.0 | 1.6 | 0.00 | 0.00 | 0.00 | 84 | 1016.2 |
| 20260507212803 | 10 | 113 | 0.0 | 1.6 | 0.00 | 0.00 | 0.00 | 84 | 1016.4 |
| 20260507212603 | 10 | 113 | 0.0 | 1.6 | 0.00 | 0.00 | 0.00 | 84 | 1016.3 |
| 20260507212503 | 10 | 113 | 0.0 | 1.6 | 0.00 | 0.00 | 0.00 | 84 | 1016.2 |
| 20260507212403 | 10 | 113 | 0.0 | 1.6 | 0.00 | 0.00 | 0.00 | 84 | 1016.4 |
| 20260507212313 | 10 | 113 | 0.0 | 1.6 | 0.00 | 0.00 | 0.00 | 84 | 1016.4 |
| 20260507212306 | 10 | 113 | 0.0 | 1.6 | 0.00 | 0.00 | 0.00 | 84 | 1016.3 |
| 20260507212203 | 10 | 113 | 0.0 | 1.6 | 0.00 | 0.00 | 0.00 | 84 | 1016.3 |
| 20260507212003 | 10 | 113 | 0.0 | 1.6 | 0.00 | 0.00 | 0.00 | 84 | 1016.3 |
| 20260507211903 | 10 | 113 | 0.0 | 1.6 | 0.00 | 0.00 | 0.00 | 84 | 1016.3 |
| 20260507211803 | 10 | 113 | 0.0 | 1.6 | 0.00 | 0.00 | 0.00 | 84 | 1016.3 |
| 20260507211703 | 10 | 113 | 0.0 | 1.6 | 0.00 | 0.00 | 0.00 | 84 | 1016.1 |
| 20260507211603 | 10 | 113 | 0.0 | 1.6 | 0.00 | 0.00 | 0.00 | 84 | 1016.2 |
| 20260507211503 | 10 | 113 | 0.0 | 1.6 | 0.00 | 0.00 | 0.00 | 84 | 1016.2 |
| 20260507211403 | 10 | 0 | 0.0 | 0.0 | 0.00 | 0.00 | 0.00 | 84 | 1016.2 |
| 20260507211303 | 10 | 0 | 0.0 | 0.0 | 0.00 | 0.00 | 0.00 | 84 | 1016.2 |
| 20260507211203 | 10 | 0 | 0.0 | 0.0 | 0.00 | 0.00 | 0.00 | 84 | 1016.1 |
| 20260507211117 | 10 | 0 | 0.0 | 0.0 | 0.00 | 0.00 | 0.00 | 84 | 1016.1 |
| 20260507211103 | 10 | 0 | 0.0 | 0.0 | 0.00 | 0.00 | 0.00 | 84 | 1016.2 |
| 20260507211003 | 10 | 0 | 0.0 | 0.0 | 0.00 | 0.00 | 0.00 | 84 | 1016.2 |
| 20260507210803 | 10 | 0 | 0.0 | 0.0 | 0.00 | 0.00 | 0.00 | 84 | 1016.1 |
| 20260507210703 | 10 | 0 | 0.0 | 0.0 | 0.00 | 0.00 | 0.00 | 84 | 1016.1 |
| 20260507210603 | 10 | 0 | 0.0 | 0.0 | 0.00 | 0.00 | 0.00 | 84 | 1016.1 |
| 20260507210503 | 10 | 0 | 0.0 | 0.0 | 0.00 | 0.00 | 0.00 | 84 | 1016.2 |
| 20260507210422 | 10 | 0 | 0.0 | 0.0 | 0.00 | 0.00 | 0.00 | 84 | 1016.2 |
| 20260507210403 | 10 | 0 | 0.0 | 0.0 | 0.00 | 0.00 | 0.00 | 84 | 1016.0 |
| 20260507210303 | 10 | 0 | 0.0 | 0.0 | 0.00 | 0.00 | 0.00 | 84 | 1016.0 |
| 20260507210214 | 10 | 0 | 0.0 | 0.0 | 0.00 | 0.00 | 0.00 | 84 | 1016.0 |
| 20260507210112 | 10 | 0 | 0.0 | 0.0 | 0.00 | 0.00 | 0.00 | 84 | 1016.4 |
| 20260507210104 | 10 | 0 | 0.0 | 0.0 | 0.00 | 0.00 | 0.00 | 84 | 1016.2 |
| 20260507205813 | 10 | 0 | 0.0 | 0.0 | 0.00 | 0.00 | 0.00 | 84 | 1016.2 |
| 20260507205803 | 10 | 0 | 0.0 | 0.0 | 0.00 | 0.00 | 0.00 | 84 | 1016.1 |
| 20260507205703 | 10 | 0 | 0.0 | 0.0 | 0.00 | 0.00 | 0.00 | 84 | 1016.0 |
| 20260507205503 | 10 | 145 | 0.0 | 1.6 | 0.00 | 0.00 | 0.00 | 84 | 1016.0 |
| 20260507205418 | 10 | 145 | 0.0 | 1.6 | 0.00 | 0.00 | 0.00 | 84 | 1016.0 |
| 20260507205403 | 10 | 144 | 0.0 | 1.6 | 0.00 | 0.00 | 0.00 | 83 | 1016.0 |
| 20260507205306 | 10 | 144 | 0.0 | 1.6 | 0.00 | 0.00 | 0.00 | 83 | 1016.1 |
| 20260507205103 | 10 | 145 | 0.0 | 3.2 | 0.00 | 0.00 | 0.00 | 83 | 1016.2 |
| 20260507205003 | 10 | 145 | 0.0 | 3.2 | 0.00 | 0.00 | 0.00 | 83 | 1016.0 |
| 20260507204903 | 10 | 145 | 0.0 | 3.2 | 0.00 | 0.00 | 0.00 | 83 | 1016.0 |
| 20260507204803 | 10 | 145 | 0.0 | 3.2 | 0.00 | 0.00 | 0.00 | 83 | 1015.9 |
| 20260507204704 | 10 | 145 | 0.0 | 3.2 | 0.00 | 0.00 | 0.00 | 83 | 1016.0 |
| 20260507204603 | 10 | 143 | 0.0 | 3.2 | 0.00 | 0.00 | 0.00 | 83 | 1016.1 |
| 20260507204503 | 10 | 144 | 0.0 | 3.2 | 0.00 | 0.00 | 0.00 | 83 | 1015.9 |
| 20260507204413 | 10 | 144 | 0.0 | 3.2 | 0.00 | 0.00 | 0.00 | 83 | 1015.9 |
| 20260507204403 | 10 | 145 | 0.0 | 3.2 | 0.00 | 0.00 | 0.00 | 83 | 1016.1 |
| 20260507204303 | 10 | 145 | 0.0 | 3.2 | 0.00 | 0.00 | 0.00 | 83 | 1016.1 |
| 20260507204004 | 10 | 147 | 0.0 | 3.2 | 0.00 | 0.00 | 0.00 | 83 | 1015.9 |
| 20260507203916 | 10 | 147 | 0.0 | 3.2 | 0.00 | 0.00 | 0.00 | 83 | 1015.9 |
| 20260507203903 | 10 | 147 | 0.0 | 3.2 | 0.00 | 0.00 | 0.00 | 83 | 1016.1 |
| 20260507203803 | 10 | 147 | 0.0 | 3.2 | 0.00 | 0.00 | 0.00 | 83 | 1016.0 |
| 20260507203603 | 10 | 149 | 0.0 | 3.2 | 0.00 | 0.00 | 0.00 | 83 | 1015.8 |
| 20260507203516 | 10 | 149 | 0.0 | 3.2 | 0.00 | 0.00 | 0.00 | 83 | 1015.8 |
| 20260507203503 | 10 | 148 | 0.0 | 3.2 | 0.00 | 0.00 | 0.00 | 83 | 1015.9 |
| 20260507203403 | 10 | 148 | 0.0 | 1.6 | 0.00 | 0.00 | 0.00 | 83 | 1015.9 |
| 20260507203203 | 10 | 145 | 0.0 | 1.6 | 0.00 | 0.00 | 0.00 | 83 | 1015.8 |
| 20260507203104 | 10 | 145 | 0.0 | 3.2 | 0.00 | 0.00 | 0.00 | 83 | 1016.0 |
| 20260507203004 | 10 | 145 | 0.0 | 3.2 | 0.00 | 0.00 | 0.00 | 83 | 1015.9 |
| 20260507202903 | 10 | 145 | 0.0 | 3.2 | 0.00 | 0.00 | 0.00 | 83 | 1015.9 |
| 20260507202804 | 10 | 145 | 0.0 | 3.2 | 0.00 | 0.00 | 0.00 | 83 | 1016.0 |
| 20260507202703 | 10 | 145 | 0.0 | 3.2 | 0.00 | 0.00 | 0.00 | 83 | 1015.7 |
| 20260507202603 | 10 | 144 | 0.0 | 3.2 | 0.00 | 0.00 | 0.00 | 83 | 1015.9 |
| 20260507202506 | 10 | 144 | 0.0 | 3.2 | 0.00 | 0.00 | 0.00 | 83 | 1015.8 |
| 20260507202404 | 10 | 140 | 0.0 | 3.2 | 0.00 | 0.00 | 0.00 | 83 | 1015.9 |
| 20260507202306 | 10 | 141 | 0.0 | 3.2 | 0.00 | 0.00 | 0.00 | 83 | 1015.8 |
| 20260507202203 | 10 | 142 | 0.0 | 3.2 | 0.00 | 0.00 | 0.00 | 83 | 1015.8 |
| 20260507202103 | 10 | 144 | 0.0 | 3.2 | 0.00 | 0.00 | 0.00 | 83 | 1015.9 |
| 20260507202005 | 10 | 145 | 0.0 | 3.2 | 0.00 | 0.00 | 0.00 | 83 | 1015.8 |
| 20260507201903 | 10 | 145 | 0.0 | 3.2 | 0.00 | 0.00 | 0.00 | 83 | 1016.0 |
| 20260507201803 | 10 | 146 | 0.0 | 3.2 | 0.00 | 0.00 | 0.00 | 83 | 1015.9 |
| 20260507201703 | 10 | 146 | 0.0 | 3.2 | 0.00 | 0.00 | 0.00 | 82 | 1015.9 |
| 20260507201603 | 10 | 146 | 0.0 | 3.2 | 0.00 | 0.00 | 0.00 | 82 | 1016.1 |
| 20260507201513 | 10 | 146 | 0.0 | 3.2 | 0.00 | 0.00 | 0.00 | 82 | 1016.1 |
| 20260507201504 | 10 | 147 | 0.0 | 3.2 | 0.00 | 0.00 | 0.00 | 82 | 1016.0 |
| 20260507201403 | 10 | 152 | 0.0 | 3.2 | 0.00 | 0.00 | 0.00 | 82 | 1015.8 |
| 20260507201203 | 10 | 151 | 0.0 | 3.2 | 0.00 | 0.00 | 0.00 | 82 | 1016.1 |
| 20260507201104 | 10 | 150 | 0.0 | 3.2 | 0.00 | 0.00 | 0.00 | 82 | 1015.8 |
| 20260507201003 | 10 | 147 | 0.0 | 1.6 | 0.00 | 0.00 | 0.00 | 82 | 1016.0 |
| 20260507200903 | 10 | 140 | 0.0 | 1.6 | 0.00 | 0.00 | 0.00 | 82 | 1016.0 |
| 20260507200804 | 10 | 136 | 0.0 | 1.6 | 0.00 | 0.00 | 0.00 | 82 | 1015.9 |
| 20260507200704 | 10 | 133 | 0.0 | 3.2 | 0.00 | 0.00 | 0.00 | 82 | 1015.9 |
| 20260507200615 | 10 | 133 | 0.0 | 3.2 | 0.00 | 0.00 | 0.00 | 82 | 1015.9 |
| 20260507200603 | 10 | 129 | 0.0 | 3.2 | 0.00 | 0.00 | 0.00 | 82 | 1015.9 |
| 20260507200514 | 10 | 129 | 0.0 | 3.2 | 0.00 | 0.00 | 0.00 | 82 | 1015.9 |
| 20260507200504 | 10 | 124 | 0.0 | 3.2 | 0.00 | 0.00 | 0.00 | 82 | 1015.7 |
| 20260507200316 | 10 | 126 | 0.0 | 3.2 | 0.00 | 0.00 | 0.00 | 82 | 1015.9 |
| 20260507200203 | 10 | 132 | 0.0 | 3.2 | 0.00 | 0.00 | 0.00 | 82 | 1015.7 |
| 20260507200003 | 10 | 138 | 1.6 | 3.2 | 0.00 | 0.00 | 0.00 | 82 | 1015.7 |
| 20260507195903 | 10 | 140 | 1.6 | 3.2 | 0.00 | 0.00 | 0.00 | 82 | 1015.8 |
| 20260507195804 | 10 | 139 | 1.6 | 3.2 | 0.00 | 0.00 | 0.00 | 82 | 1015.7 |
| 20260507195703 | 10 | 139 | 1.6 | 3.2 | 0.00 | 0.00 | 0.00 | 82 | 1015.6 |
| 20260507195616 | 10 | 139 | 1.6 | 3.2 | 0.00 | 0.00 | 0.00 | 82 | 1015.6 |
| 20260507195603 | 10 | 141 | 1.6 | 3.2 | 0.00 | 0.00 | 0.00 | 82 | 1015.8 |
| 20260507195503 | 10 | 140 | 1.6 | 3.2 | 0.00 | 0.00 | 0.00 | 82 | 1015.9 |
| 20260507195305 | 10 | 133 | 1.6 | 4.8 | 0.00 | 0.00 | 0.00 | 82 | 1015.7 |
| 20260507195203 | 10 | 130 | 1.6 | 4.8 | 0.00 | 0.00 | 0.00 | 82 | 1015.8 |
| 20260507195103 | 10 | 123 | 1.6 | 4.8 | 0.00 | 0.00 | 0.00 | 82 | 1015.7 |
| 20260507195003 | 10 | 121 | 1.6 | 4.8 | 0.00 | 0.00 | 0.00 | 82 | 1015.8 |
| 20260507194903 | 10 | 120 | 0.0 | 4.8 | 0.00 | 0.00 | 0.00 | 82 | 1016.0 |
| 20260507194803 | 10 | 121 | 0.0 | 4.8 | 0.00 | 0.00 | 0.00 | 82 | 1015.6 |
| 20260507194703 | 10 | 123 | 1.6 | 4.8 | 0.00 | 0.00 | 0.00 | 82 | 1015.8 |
| 20260507194603 | 11 | 124 | 0.0 | 4.8 | 0.00 | 0.00 | 0.00 | 82 | 1015.7 |
| 20260507194516 | 11 | 124 | 0.0 | 4.8 | 0.00 | 0.00 | 0.00 | 82 | 1015.7 |
| 20260507194503 | 11 | 125 | 0.0 | 4.8 | 0.00 | 0.00 | 0.00 | 82 | 1015.8 |
| 20260507194403 | 11 | 124 | 0.0 | 4.8 | 0.00 | 0.00 | 0.00 | 82 | 1015.9 |
| 20260507194313 | 11 | 124 | 0.0 | 4.8 | 0.00 | 0.00 | 0.00 | 82 | 1015.9 |
| 20260507194203 | 11 | 125 | 0.0 | 4.8 | 0.00 | 0.00 | 0.00 | 82 | 1015.7 |
| 20260507194003 | 11 | 128 | 0.0 | 3.2 | 0.00 | 0.00 | 0.00 | 82 | 1015.7 |
| 20260507193903 | 11 | 125 | 0.0 | 3.2 | 0.00 | 0.00 | 0.00 | 82 | 1015.5 |
| 20260507193804 | 11 | 125 | 0.0 | 3.2 | 0.00 | 0.00 | 0.00 | 81 | 1015.7 |
| 20260507193704 | 11 | 126 | 0.0 | 4.8 | 0.00 | 0.00 | 0.00 | 81 | 1015.8 |
| 20260507193604 | 11 | 121 | 1.6 | 4.8 | 0.00 | 0.00 | 0.00 | 81 | 1015.6 |
| 20260507193503 | 11 | 127 | 1.6 | 4.8 | 0.00 | 0.00 | 0.00 | 81 | 1015.5 |
| 20260507193404 | 11 | 125 | 1.6 | 4.8 | 0.00 | 0.00 | 0.00 | 81 | 1015.8 |
| 20260507193304 | 11 | 127 | 1.6 | 4.8 | 0.00 | 0.00 | 0.00 | 81 | 1015.5 |
| 20260507193203 | 11 | 128 | 1.6 | 4.8 | 0.00 | 0.00 | 0.00 | 81 | 1015.6 |
| 20260507193116 | 11 | 128 | 1.6 | 4.8 | 0.00 | 0.00 | 0.00 | 81 | 1015.6 |
| 20260507193104 | 11 | 132 | 1.6 | 4.8 | 0.00 | 0.00 | 0.00 | 81 | 1015.6 |
| 20260507193004 | 11 | 135 | 1.6 | 4.8 | 0.00 | 0.00 | 0.00 | 81 | 1015.6 |
| 20260507192803 | 11 | 140 | 1.6 | 4.8 | 0.00 | 0.00 | 0.00 | 81 | 1015.7 |
| 20260507192704 | 11 | 140 | 1.6 | 4.8 | 0.00 | 0.00 | 0.00 | 81 | 1015.7 |
| 20260507192604 | 11 | 146 | 0.0 | 4.8 | 0.00 | 0.00 | 0.00 | 81 | 1015.6 |
| 20260507192503 | 11 | 144 | 0.0 | 6.4 | 0.00 | 0.00 | 0.00 | 81 | 1015.6 |
| 20260507192416 | 11 | 144 | 0.0 | 6.4 | 0.00 | 0.00 | 0.00 | 81 | 1015.6 |
| 20260507192403 | 11 | 150 | 0.0 | 6.4 | 0.00 | 0.00 | 0.00 | 81 | 1015.4 |
| 20260507192306 | 11 | 162 | 0.0 | 6.4 | 0.00 | 0.00 | 0.00 | 81 | 1015.6 |
| 20260507192104 | 11 | 159 | 0.0 | 6.4 | 0.00 | 0.00 | 0.00 | 81 | 1015.6 |
| 20260507192003 | 11 | 157 | 0.0 | 6.4 | 0.00 | 0.00 | 0.00 | 81 | 1015.6 |
| 20260507191904 | 11 | 155 | 1.6 | 6.4 | 0.00 | 0.00 | 0.00 | 81 | 1015.5 |
| 20260507191803 | 11 | 153 | 1.6 | 6.4 | 0.00 | 0.00 | 0.00 | 81 | 1015.6 |
| 20260507191716 | 11 | 153 | 1.6 | 6.4 | 0.00 | 0.00 | 0.00 | 81 | 1015.6 |
| 20260507191703 | 11 | 150 | 1.6 | 6.4 | 0.00 | 0.00 | 0.00 | 81 | 1015.6 |
| 20260507191615 | 11 | 150 | 1.6 | 6.4 | 0.00 | 0.00 | 0.00 | 81 | 1015.6 |
| 20260507191603 | 11 | 151 | 1.6 | 6.4 | 0.00 | 0.00 | 0.00 | 81 | 1015.5 |
| 20260507191417 | 11 | 150 | 1.6 | 6.4 | 0.00 | 0.00 | 0.00 | 81 | 1015.7 |
| 20260507191303 | 11 | 140 | 0.0 | 3.2 | 0.00 | 0.00 | 0.00 | 81 | 1015.6 |
| 20260507191118 | 11 | 140 | 0.0 | 3.2 | 0.00 | 0.00 | 0.00 | 81 | 1015.7 |
| 20260507191103 | 11 | 140 | 0.0 | 3.2 | 0.00 | 0.00 | 0.00 | 81 | 1015.4 |
| 20260507191003 | 11 | 140 | 0.0 | 3.2 | 0.00 | 0.00 | 0.00 | 81 | 1015.4 |
| 20260507190803 | 11 | 139 | 0.0 | 4.8 | 0.00 | 0.00 | 0.00 | 80 | 1015.5 |
| 20260507190704 | 11 | 139 | 0.0 | 4.8 | 0.00 | 0.00 | 0.00 | 80 | 1015.5 |
| 20260507190603 | 11 | 140 | 0.0 | 4.8 | 0.00 | 0.00 | 0.00 | 80 | 1015.5 |
| 20260507190504 | 11 | 141 | 1.6 | 4.8 | 0.00 | 0.00 | 0.00 | 80 | 1015.5 |
| 20260507190404 | 11 | 144 | 1.6 | 4.8 | 0.00 | 0.00 | 0.00 | 80 | 1015.4 |
| 20260507190303 | 11 | 144 | 1.6 | 4.8 | 0.00 | 0.00 | 0.00 | 80 | 1015.6 |
| 20260507190203 | 11 | 145 | 1.6 | 4.8 | 0.00 | 0.00 | 0.00 | 80 | 1015.4 |
| 20260507190005 | 11 | 149 | 1.6 | 4.8 | 0.00 | 0.00 | 0.00 | 80 | 1015.5 |
| 20260507185916 | 11 | 149 | 1.6 | 4.8 | 0.00 | 0.00 | 0.00 | 80 | 1015.5 |
| 20260507185903 | 11 | 153 | 0.0 | 4.8 | 0.00 | 0.00 | 0.00 | 80 | 1015.4 |
| 20260507185803 | 11 | 155 | 0.0 | 4.8 | 0.00 | 0.00 | 0.00 | 80 | 1015.5 |
| 20260507185617 | 11 | 150 | 0.0 | 4.8 | 0.00 | 0.00 | 0.00 | 80 | 1015.5 |
| 20260507185604 | 11 | 151 | 0.0 | 4.8 | 0.00 | 0.00 | 0.00 | 80 | 1015.4 |
| 20260507185504 | 11 | 154 | 0.0 | 4.8 | 0.00 | 0.00 | 0.00 | 80 | 1015.6 |
| 20260507185305 | 11 | 150 | 0.0 | 4.8 | 0.00 | 0.00 | 0.00 | 80 | 1015.4 |
| 20260507185203 | 11 | 147 | 1.6 | 4.8 | 0.00 | 0.00 | 0.00 | 80 | 1015.3 |
| 20260507185104 | 11 | 144 | 1.6 | 4.8 | 0.00 | 0.00 | 0.00 | 80 | 1015.4 |
| 20260507185003 | 11 | 142 | 1.6 | 4.8 | 0.00 | 0.00 | 0.00 | 80 | 1015.6 |
| 20260507184904 | 11 | 135 | 1.6 | 4.8 | 0.00 | 0.00 | 0.00 | 80 | 1015.4 |
| 20260507184803 | 11 | 134 | 1.6 | 4.8 | 0.00 | 0.00 | 0.00 | 80 | 1015.5 |
| 20260507184704 | 11 | 138 | 1.6 | 4.8 | 0.00 | 0.00 | 0.00 | 80 | 1015.4 |
| 20260507184603 | 11 | 138 | 1.6 | 4.8 | 0.00 | 0.00 | 0.00 | 80 | 1015.4 |
| 20260507184503 | 11 | 136 | 1.6 | 4.8 | 0.00 | 0.00 | 0.00 | 80 | 1015.5 |
| 20260507184403 | 11 | 135 | 1.6 | 4.8 | 0.00 | 0.00 | 0.00 | 80 | 1015.5 |
| 20260507184304 | 11 | 132 | 0.0 | 4.8 | 0.00 | 0.00 | 0.00 | 80 | 1015.7 |
| 20260507184204 | 11 | 130 | 1.6 | 4.8 | 0.00 | 0.00 | 0.00 | 80 | 1015.4 |
| 20260507184103 | 11 | 125 | 1.6 | 4.8 | 0.00 | 0.00 | 0.00 | 80 | 1015.4 |
| 20260507184003 | 11 | 130 | 1.6 | 4.8 | 0.00 | 0.00 | 0.00 | 79 | 1015.2 |
| 20260507183913 | 11 | 130 | 1.6 | 4.8 | 0.00 | 0.00 | 0.00 | 79 | 1015.2 |
| 20260507183904 | 11 | 133 | 1.6 | 4.8 | 0.00 | 0.00 | 0.00 | 79 | 1015.6 |
| 20260507183803 | 11 | 131 | 1.6 | 4.8 | 0.00 | 0.00 | 0.00 | 79 | 1015.3 |
| 20260507183604 | 11 | 133 | 1.6 | 4.8 | 0.00 | 0.00 | 0.00 | 79 | 1015.3 |
| 20260507183504 | 11 | 131 | 1.6 | 4.8 | 0.00 | 0.00 | 0.00 | 79 | 1015.4 |
| 20260507183403 | 11 | 131 | 1.6 | 4.8 | 0.00 | 0.00 | 0.00 | 79 | 1015.4 |
| 20260507183303 | 11 | 131 | 1.6 | 4.8 | 0.00 | 0.00 | 0.00 | 79 | 1015.4 |
| 20260507183204 | 11 | 132 | 1.6 | 4.8 | 0.00 | 0.00 | 0.00 | 79 | 1015.4 |
| 20260507183103 | 11 | 137 | 1.6 | 4.8 | 0.00 | 0.00 | 0.00 | 79 | 1015.6 |
| 20260507183015 | 11 | 137 | 1.6 | 4.8 | 0.00 | 0.00 | 0.00 | 79 | 1015.6 |
| 20260507183003 | 11 | 129 | 1.6 | 4.8 | 0.00 | 0.00 | 0.00 | 79 | 1015.4 |
| 20260507182903 | 11 | 127 | 1.6 | 6.4 | 0.00 | 0.00 | 0.00 | 79 | 1015.3 |
| 20260507182704 | 11 | 135 | 1.6 | 6.4 | 0.00 | 0.00 | 0.00 | 79 | 1015.5 |
| 20260507182604 | 11 | 137 | 1.6 | 6.4 | 0.00 | 0.00 | 0.00 | 79 | 1015.5 |
| 20260507182403 | 11 | 137 | 1.6 | 6.4 | 0.00 | 0.00 | 0.00 | 78 | 1015.5 |
| 20260507182306 | 11 | 136 | 1.6 | 6.4 | 0.00 | 0.00 | 0.00 | 78 | 1015.5 |
| 20260507182203 | 11 | 139 | 1.6 | 6.4 | 0.00 | 0.00 | 0.00 | 78 | 1015.5 |
| 20260507182104 | 11 | 137 | 1.6 | 6.4 | 0.00 | 0.00 | 0.00 | 78 | 1015.4 |
| 20260507182004 | 11 | 144 | 1.6 | 6.4 | 0.00 | 0.00 | 0.00 | 78 | 1015.4 |
| 20260507181903 | 11 | 154 | 1.6 | 6.4 | 0.00 | 0.00 | 0.00 | 78 | 1015.4 |
| 20260507181803 | 11 | 148 | 1.6 | 6.4 | 0.00 | 0.00 | 0.00 | 78 | 1015.3 |
| 20260507181717 | 11 | 148 | 1.6 | 6.4 | 0.00 | 0.00 | 0.00 | 78 | 1015.3 |
| 20260507181703 | 11 | 148 | 1.6 | 6.4 | 0.00 | 0.00 | 0.00 | 78 | 1015.4 |
| 20260507181604 | 11 | 147 | 1.6 | 6.4 | 0.00 | 0.00 | 0.00 | 78 | 1015.5 |
| 20260507181404 | 11 | 146 | 1.6 | 6.4 | 0.00 | 0.00 | 0.00 | 78 | 1015.3 |
| 20260507181316 | 11 | 146 | 1.6 | 6.4 | 0.00 | 0.00 | 0.00 | 78 | 1015.3 |
| 20260507181303 | 11 | 148 | 1.6 | 6.4 | 0.00 | 0.00 | 0.00 | 78 | 1015.3 |
| 20260507181204 | 11 | 145 | 1.6 | 6.4 | 0.00 | 0.00 | 0.00 | 78 | 1015.4 |
| 20260507181003 | 11 | 143 | 1.6 | 6.4 | 0.00 | 0.00 | 0.00 | 78 | 1015.4 |
| 20260507180903 | 11 | 135 | 1.6 | 6.4 | 0.00 | 0.00 | 0.00 | 78 | 1015.2 |
| 20260507180814 | 11 | 135 | 1.6 | 6.4 | 0.00 | 0.00 | 0.00 | 78 | 1015.2 |
| 20260507180804 | 11 | 134 | 1.6 | 6.4 | 0.00 | 0.00 | 0.00 | 78 | 1015.5 |
| 20260507180703 | 11 | 137 | 1.6 | 6.4 | 0.00 | 0.00 | 0.00 | 78 | 1015.4 |
| 20260507180515 | 11 | 139 | 1.6 | 6.4 | 0.00 | 0.00 | 0.00 | 77 | 1015.4 |
| 20260507180504 | 11 | 143 | 1.6 | 6.4 | 0.00 | 0.00 | 0.00 | 77 | 1015.5 |
| 20260507180413 | 11 | 143 | 1.6 | 6.4 | 0.00 | 0.00 | 0.00 | 77 | 1015.5 |
| 20260507180403 | 11 | 143 | 1.6 | 4.8 | 0.00 | 0.00 | 0.00 | 77 | 1015.5 |
| 20260507180103 | 11 | 147 | 0.0 | 4.8 | 0.00 | 0.00 | 0.00 | 78 | 1015.3 |
| 20260507180013 | 11 | 147 | 0.0 | 4.8 | 0.00 | 0.00 | 0.00 | 78 | 1015.3 |
| 20260507180003 | 11 | 147 | 0.0 | 4.8 | 0.00 | 0.00 | 0.00 | 78 | 1015.4 |
| 20260507175903 | 11 | 146 | 0.0 | 4.8 | 0.00 | 0.00 | 0.00 | 78 | 1015.3 |
| 20260507175815 | 11 | 146 | 0.0 | 4.8 | 0.00 | 0.00 | 0.00 | 78 | 1015.3 |
| 20260507175703 | 12 | 144 | 0.0 | 4.8 | 0.00 | 0.00 | 0.00 | 78 | 1015.5 |
| 20260507175504 | 12 | 134 | 0.0 | 3.2 | 0.00 | 0.00 | 0.00 | 78 | 1015.2 |
| 20260507175404 | 12 | 132 | 0.0 | 3.2 | 0.00 | 0.00 | 0.00 | 78 | 1015.3 |
| 20260507175306 | 12 | 130 | 0.0 | 3.2 | 0.00 | 0.00 | 0.00 | 78 | 1015.4 |
| 20260507175204 | 12 | 129 | 0.0 | 3.2 | 0.00 | 0.00 | 0.00 | 78 | 1015.3 |
| 20260507175104 | 12 | 126 | 0.0 | 3.2 | 0.00 | 0.00 | 0.00 | 78 | 1015.2 |
| 20260507175003 | 12 | 122 | 1.6 | 3.2 | 0.00 | 0.00 | 0.00 | 78 | 1015.3 |
| 20260507174903 | 12 | 118 | 1.6 | 3.2 | 0.00 | 0.00 | 0.00 | 78 | 1015.3 |
| 20260507174804 | 12 | 118 | 1.6 | 3.2 | 0.00 | 0.00 | 0.00 | 78 | 1015.4 |
| 20260507174704 | 12 | 114 | 1.6 | 3.2 | 0.00 | 0.00 | 0.00 | 78 | 1015.4 |
| 20260507174603 | 12 | 108 | 1.6 | 3.2 | 0.00 | 0.00 | 0.00 | 78 | 1015.3 |
| 20260507174503 | 12 | 105 | 1.6 | 3.2 | 0.00 | 0.00 | 0.00 | 78 | 1015.5 |
| 20260507174403 | 12 | 108 | 1.6 | 3.2 | 0.00 | 0.00 | 0.00 | 77 | 1015.5 |
| 20260507174304 | 12 | 112 | 1.6 | 3.2 | 0.00 | 0.00 | 0.00 | 77 | 1015.2 |
| 20260507174204 | 12 | 118 | 1.6 | 3.2 | 0.00 | 0.00 | 0.00 | 77 | 1015.4 |
| 20260507174103 | 12 | 115 | 1.6 | 4.8 | 0.00 | 0.00 | 0.00 | 77 | 1015.3 |
| 20260507174003 | 12 | 111 | 1.6 | 4.8 | 0.00 | 0.00 | 0.00 | 77 | 1015.4 |
| 20260507173913 | 12 | 111 | 1.6 | 4.8 | 0.00 | 0.00 | 0.00 | 77 | 1015.4 |
| 20260507173903 | 12 | 104 | 1.6 | 4.8 | 0.00 | 0.00 | 0.00 | 77 | 1015.2 |
| 20260507173804 | 12 | 104 | 1.6 | 4.8 | 0.00 | 0.00 | 0.00 | 77 | 1015.3 |
| 20260507173604 | 12 | 103 | 1.6 | 4.8 | 0.00 | 0.00 | 0.00 | 77 | 1015.2 |
| 20260507173513 | 12 | 103 | 1.6 | 4.8 | 0.00 | 0.00 | 0.00 | 77 | 1015.2 |
| 20260507173504 | 12 | 99 | 1.6 | 4.8 | 0.00 | 0.00 | 0.00 | 77 | 1015.4 |
| 20260507173403 | 12 | 97 | 1.6 | 4.8 | 0.00 | 0.00 | 0.00 | 77 | 1015.3 |
| 20260507173204 | 12 | 87 | 1.6 | 4.8 | 0.00 | 0.00 | 0.00 | 77 | 1015.3 |
| 20260507173104 | 12 | 92 | 1.6 | 4.8 | 0.00 | 0.00 | 0.00 | 77 | 1015.2 |
| 20260507173003 | 12 | 102 | 1.6 | 4.8 | 0.00 | 0.00 | 0.00 | 77 | 1015.3 |
| 20260507172903 | 12 | 116 | 1.6 | 4.8 | 0.00 | 0.00 | 0.00 | 77 | 1015.2 |
| 20260507172804 | 12 | 109 | 1.6 | 4.8 | 0.00 | 0.00 | 0.00 | 77 | 1015.2 |
| 20260507172703 | 12 | 110 | 1.6 | 6.4 | 0.00 | 0.00 | 0.00 | 77 | 1015.3 |
| 20260507172603 | 12 | 115 | 1.6 | 6.4 | 0.00 | 0.00 | 0.00 | 77 | 1015.3 |
| 20260507172503 | 12 | 120 | 1.6 | 6.4 | 0.00 | 0.00 | 0.00 | 77 | 1015.4 |
| 20260507172404 | 12 | 116 | 1.6 | 6.4 | 0.00 | 0.00 | 0.00 | 77 | 1015.4 |
| 20260507172307 | 12 | 116 | 1.6 | 6.4 | 0.00 | 0.00 | 0.00 | 77 | 1015.1 |
| 20260507172203 | 12 | 111 | 1.6 | 6.4 | 0.00 | 0.00 | 0.00 | 77 | 1015.3 |
| 20260507172103 | 12 | 107 | 3.2 | 6.4 | 0.00 | 0.00 | 0.00 | 77 | 1015.5 |
| 20260507172004 | 12 | 101 | 3.2 | 6.4 | 0.00 | 0.00 | 0.00 | 77 | 1015.5 |
| 20260507171903 | 12 | 95 | 1.6 | 6.4 | 0.00 | 0.00 | 0.00 | 77 | 1015.3 |
| 20260507171803 | 12 | 97 | 1.6 | 6.4 | 0.00 | 0.00 | 0.00 | 77 | 1015.4 |
| 20260507171712 | 12 | 97 | 1.6 | 6.4 | 0.00 | 0.00 | 0.00 | 77 | 1015.4 |
| 20260507171704 | 12 | 96 | 1.6 | 6.4 | 0.00 | 0.00 | 0.00 | 77 | 1015.3 |
| 20260507171603 | 12 | 95 | 1.6 | 6.4 | 0.00 | 0.00 | 0.00 | 77 | 1015.5 |
| 20260507171403 | 12 | 90 | 1.6 | 4.8 | 0.00 | 0.00 | 0.00 | 77 | 1015.4 |
| 20260507171303 | 12 | 92 | 1.6 | 4.8 | 0.00 | 0.00 | 0.00 | 78 | 1015.3 |
| 20260507171204 | 12 | 103 | 1.6 | 4.8 | 0.00 | 0.00 | 0.00 | 78 | 1015.2 |
| 20260507171114 | 12 | 103 | 1.6 | 4.8 | 0.00 | 0.00 | 0.00 | 78 | 1015.2 |
| 20260507171103 | 12 | 105 | 1.6 | 4.8 | 0.00 | 0.00 | 0.00 | 78 | 1015.4 |
| 20260507171003 | 12 | 104 | 1.6 | 6.4 | 0.00 | 0.00 | 0.00 | 78 | 1015.4 |
| 20260507170815 | 12 | 105 | 1.6 | 6.4 | 0.00 | 0.00 | 0.00 | 78 | 1015.4 |
| 20260507170803 | 12 | 97 | 1.6 | 6.4 | 0.00 | 0.00 | 0.00 | 78 | 1015.3 |
| 20260507170703 | 12 | 98 | 1.6 | 6.4 | 0.00 | 0.00 | 0.00 | 78 | 1015.2 |
| 20260507170504 | 12 | 97 | 1.6 | 6.4 | 0.00 | 0.00 | 0.00 | 78 | 1015.3 |
| 20260507170404 | 12 | 94 | 1.6 | 6.4 | 0.00 | 0.00 | 0.00 | 78 | 1015.4 |
| 20260507170303 | 12 | 87 | 1.6 | 6.4 | 0.00 | 0.00 | 0.00 | 78 | 1015.3 |
| 20260507170204 | 12 | 84 | 1.6 | 6.4 | 0.00 | 0.00 | 0.00 | 78 | 1015.4 |
| 20260507170009 | 12 | 83 | 1.6 | 6.4 | 0.00 | 0.00 | 0.00 | 78 | 1015.3 |
| 20260507165903 | 12 | 88 | 1.6 | 6.4 | 0.00 | 0.00 | 0.00 | 78 | 1015.4 |
| 20260507165816 | 12 | 88 | 1.6 | 6.4 | 0.00 | 0.00 | 0.00 | 78 | 1015.4 |
| 20260507165803 | 12 | 93 | 1.6 | 6.4 | 0.00 | 0.00 | 0.00 | 78 | 1015.5 |
| 20260507165714 | 12 | 93 | 1.6 | 6.4 | 0.00 | 0.00 | 0.00 | 78 | 1015.5 |
| 20260507165703 | 12 | 96 | 1.6 | 6.4 | 0.00 | 0.00 | 0.00 | 78 | 1015.2 |
| 20260507165403 | 12 | 92 | 1.6 | 6.4 | 0.00 | 0.00 | 0.00 | 78 | 1015.3 |
| 20260507165306 | 12 | 99 | 1.6 | 6.4 | 0.00 | 0.00 | 0.00 | 78 | 1015.3 |
| 20260507165203 | 12 | 100 | 1.6 | 6.4 | 0.00 | 0.00 | 0.00 | 77 | 1015.5 |
| 20260507165116 | 12 | 100 | 1.6 | 6.4 | 0.00 | 0.00 | 0.00 | 77 | 1015.5 |
| 20260507165103 | 12 | 96 | 1.6 | 6.4 | 0.00 | 0.00 | 0.00 | 77 | 1015.4 |
| 20260507165003 | 12 | 90 | 1.6 | 6.4 | 0.00 | 0.00 | 0.00 | 77 | 1015.4 |
| 20260507164803 | 12 | 92 | 1.6 | 6.4 | 0.00 | 0.00 | 0.00 | 77 | 1015.4 |
| 20260507164704 | 12 | 91 | 1.6 | 6.4 | 0.00 | 0.00 | 0.00 | 77 | 1015.2 |
| 20260507164603 | 12 | 87 | 1.6 | 6.4 | 0.00 | 0.00 | 0.00 | 77 | 1015.2 |
| 20260507164504 | 12 | 88 | 1.6 | 6.4 | 0.00 | 0.00 | 0.00 | 77 | 1015.4 |
| 20260507164403 | 12 | 111 | 1.6 | 6.4 | 0.00 | 0.00 | 0.00 | 77 | 1015.3 |
| 20260507164303 | 12 | 120 | 1.6 | 4.8 | 0.00 | 0.00 | 0.00 | 77 | 1015.6 |
| 20260507164204 | 12 | 113 | 1.6 | 4.8 | 0.00 | 0.00 | 0.00 | 77 | 1015.5 |
| 20260507164103 | 12 | 116 | 1.6 | 4.8 | 0.00 | 0.00 | 0.00 | 77 | 1015.5 |
| 20260507164004 | 12 | 122 | 1.6 | 4.8 | 0.00 | 0.00 | 0.00 | 77 | 1015.4 |
| 20260507163603 | 12 | 105 | 1.6 | 9.7 | 0.00 | 0.00 | 0.00 | 77 | 1015.6 |
| 20260507163503 | 12 | 105 | 1.6 | 9.7 | 0.00 | 0.00 | 0.00 | 77 | 1015.6 |
| 20260507163404 | 12 | 98 | 1.6 | 9.7 | 0.00 | 0.00 | 0.00 | 77 | 1015.5 |
| 20260507163303 | 12 | 95 | 1.6 | 9.7 | 0.00 | 0.00 | 0.00 | 78 | 1015.6 |
| 20260507163203 | 12 | 97 | 1.6 | 9.7 | 0.00 | 0.00 | 0.00 | 78 | 1015.5 |
| 20260507163113 | 12 | 97 | 1.6 | 9.7 | 0.00 | 0.00 | 0.00 | 78 | 1015.5 |
| 20260507163103 | 12 | 99 | 1.6 | 9.7 | 0.00 | 0.00 | 0.00 | 78 | 1015.5 |
| 20260507163003 | 12 | 107 | 1.6 | 9.7 | 0.00 | 0.00 | 0.00 | 78 | 1015.4 |
| 20260507162915 | 12 | 109 | 1.6 | 9.7 | 0.00 | 0.00 | 0.00 | 78 | 1015.6 |
| 20260507162813 | 12 | 109 | 1.6 | 9.7 | 0.00 | 0.00 | 0.00 | 78 | 1015.6 |
| 20260507162804 | 12 | 99 | 1.6 | 9.7 | 0.00 | 0.00 | 0.00 | 78 | 1015.3 |
| 20260507162712 | 12 | 99 | 1.6 | 9.7 | 0.00 | 0.00 | 0.00 | 78 | 1015.3 |
| 20260507162514 | 12 | 91 | 1.6 | 9.7 | 0.00 | 0.00 | 0.00 | 78 | 1015.6 |
| 20260507162413 | 12 | 86 | 1.6 | 9.7 | 0.00 | 0.00 | 0.00 | 77 | 1015.5 |
| 20260507162404 | 12 | 85 | 3.2 | 9.7 | 0.00 | 0.00 | 0.00 | 77 | 1015.3 |
| 20260507162317 | 12 | 85 | 3.2 | 9.7 | 0.00 | 0.00 | 0.00 | 77 | 1015.3 |
| 20260507162003 | 12 | 46 | 3.2 | 9.7 | 0.00 | 0.00 | 0.00 | 77 | 1015.4 |
| 20260507161903 | 12 | 37 | 3.2 | 9.7 | 0.00 | 0.00 | 0.00 | 77 | 1015.4 |
| 20260507161815 | 12 | 37 | 3.2 | 9.7 | 0.00 | 0.00 | 0.00 | 77 | 1015.4 |
| 20260507161804 | 12 | 39 | 3.2 | 9.7 | 0.00 | 0.00 | 0.00 | 77 | 1015.5 |
| 20260507161703 | 12 | 46 | 3.2 | 9.7 | 0.00 | 0.00 | 0.00 | 77 | 1015.6 |
| 20260507161503 | 12 | 66 | 3.2 | 9.7 | 0.00 | 0.00 | 0.00 | 78 | 1015.4 |
| 20260507161403 | 12 | 66 | 3.2 | 9.7 | 0.00 | 0.00 | 0.00 | 78 | 1015.4 |
| 20260507161203 | 12 | 81 | 3.2 | 6.4 | 0.00 | 0.00 | 0.00 | 77 | 1015.4 |
| 20260507161103 | 12 | 90 | 1.6 | 6.4 | 0.00 | 0.00 | 0.00 | 77 | 1015.4 |
| 20260507161013 | 12 | 90 | 1.6 | 6.4 | 0.00 | 0.00 | 0.00 | 77 | 1015.4 |
| 20260507161004 | 12 | 91 | 3.2 | 6.4 | 0.00 | 0.00 | 0.00 | 77 | 1015.4 |
| 20260507160904 | 12 | 105 | 3.2 | 6.4 | 0.00 | 0.00 | 0.00 | 77 | 1015.6 |
| 20260507160703 | 12 | 94 | 3.2 | 6.4 | 0.00 | 0.00 | 0.00 | 77 | 1015.4 |
| 20260507160603 | 12 | 83 | 3.2 | 6.4 | 0.00 | 0.00 | 0.00 | 77 | 1015.5 |
| 20260507160503 | 12 | 104 | 3.2 | 9.7 | 0.00 | 0.00 | 0.00 | 77 | 1015.5 |
| 20260507160415 | 12 | 104 | 3.2 | 9.7 | 0.00 | 0.00 | 0.00 | 77 | 1015.5 |
| 20260507160403 | 12 | 98 | 3.2 | 9.7 | 0.00 | 0.00 | 0.00 | 77 | 1015.7 |
| 20260507160303 | 12 | 107 | 3.2 | 9.7 | 0.00 | 0.00 | 0.00 | 77 | 1015.5 |
| 20260507160003 | 12 | 90 | 3.2 | 9.7 | 0.00 | 0.00 | 0.00 | 77 | 1015.4 |
| 20260507155903 | 12 | 75 | 3.2 | 9.7 | 0.00 | 0.00 | 0.00 | 77 | 1015.6 |
| 20260507155803 | 12 | 86 | 3.2 | 9.7 | 0.00 | 0.00 | 0.00 | 77 | 1015.5 |
| 20260507155704 | 12 | 92 | 3.2 | 9.7 | 0.00 | 0.00 | 0.00 | 77 | 1015.5 |
| 20260507155603 | 12 | 93 | 3.2 | 9.7 | 0.00 | 0.00 | 0.00 | 77 | 1015.4 |
| 20260507155504 | 12 | 85 | 3.2 | 9.7 | 0.00 | 0.00 | 0.00 | 77 | 1015.6 |
| 20260507155404 | 12 | 83 | 3.2 | 9.7 | 0.00 | 0.00 | 0.00 | 77 | 1015.5 |
| 20260507155306 | 12 | 86 | 3.2 | 9.7 | 0.00 | 0.00 | 0.00 | 77 | 1015.4 |
| 20260507155203 | 12 | 90 | 3.2 | 9.7 | 0.00 | 0.00 | 0.00 | 77 | 1015.5 |
| 20260507155104 | 12 | 96 | 3.2 | 9.7 | 0.00 | 0.00 | 0.00 | 77 | 1015.7 |
| 20260507155003 | 12 | 95 | 3.2 | 9.7 | 0.00 | 0.00 | 0.00 | 77 | 1015.6 |
| 20260507154914 | 12 | 95 | 3.2 | 9.7 | 0.00 | 0.00 | 0.00 | 77 | 1015.6 |
| 20260507154903 | 12 | 105 | 3.2 | 11.3 | 0.00 | 0.00 | 0.00 | 77 | 1015.4 |
| 20260507154812 | 12 | 105 | 3.2 | 11.3 | 0.00 | 0.00 | 0.00 | 77 | 1015.4 |
| 20260507154804 | 12 | 96 | 3.2 | 11.3 | 0.00 | 0.00 | 0.00 | 77 | 1015.4 |
| 20260507154614 | 12 | 95 | 3.2 | 11.3 | 0.00 | 0.00 | 0.00 | 77 | 1015.5 |
| 20260507154513 | 12 | 95 | 3.2 | 11.3 | 0.00 | 0.00 | 0.00 | 77 | 1015.6 |
| 20260507154503 | 12 | 104 | 3.2 | 11.3 | 0.00 | 0.00 | 0.00 | 77 | 1015.6 |
| 20260507154214 | 12 | 99 | 3.2 | 11.3 | 0.00 | 0.00 | 0.00 | 77 | 1015.7 |
| 20260507154204 | 12 | 106 | 3.2 | 11.3 | 0.00 | 0.00 | 0.00 | 77 | 1015.6 |
| 20260507154103 | 12 | 100 | 3.2 | 11.3 | 0.00 | 0.00 | 0.00 | 77 | 1015.5 |
| 20260507153904 | 12 | 99 | 3.2 | 11.3 | 0.00 | 0.00 | 0.00 | 76 | 1015.7 |
| 20260507153813 | 12 | 99 | 3.2 | 11.3 | 0.00 | 0.00 | 0.00 | 76 | 1015.7 |
| 20260507153803 | 12 | 103 | 3.2 | 11.3 | 0.00 | 0.00 | 0.00 | 76 | 1015.6 |
| 20260507153703 | 12 | 107 | 3.2 | 11.3 | 0.00 | 0.00 | 0.00 | 76 | 1015.4 |
| 20260507153503 | 12 | 104 | 3.2 | 11.3 | 0.00 | 0.00 | 0.00 | 76 | 1015.5 |
| 20260507153403 | 12 | 89 | 3.2 | 11.3 | 0.00 | 0.00 | 0.00 | 76 | 1015.5 |
| 20260507153304 | 12 | 102 | 3.2 | 11.3 | 0.00 | 0.00 | 0.00 | 76 | 1015.5 |
| 20260507153215 | 12 | 102 | 3.2 | 11.3 | 0.00 | 0.00 | 0.00 | 76 | 1015.5 |
| 20260507153203 | 12 | 99 | 3.2 | 11.3 | 0.00 | 0.00 | 0.00 | 76 | 1015.6 |
| 20260507153103 | 12 | 102 | 3.2 | 11.3 | 0.00 | 0.00 | 0.00 | 76 | 1015.6 |
| 20260507152916 | 12 | 106 | 3.2 | 11.3 | 0.00 | 0.00 | 0.00 | 76 | 1015.5 |
| 20260507152903 | 12 | 105 | 3.2 | 11.3 | 0.00 | 0.00 | 0.00 | 76 | 1015.7 |
| 20260507152804 | 12 | 104 | 3.2 | 9.7 | 0.00 | 0.00 | 0.00 | 76 | 1015.6 |
| 20260507152604 | 12 | 99 | 1.6 | 9.7 | 0.00 | 0.00 | 0.00 | 76 | 1015.7 |
| 20260507152503 | 12 | 105 | 1.6 | 9.7 | 0.00 | 0.00 | 0.00 | 76 | 1015.5 |
| 20260507152403 | 12 | 119 | 3.2 | 9.7 | 0.00 | 0.00 | 0.00 | 76 | 1015.4 |
| 20260507152312 | 12 | 119 | 3.2 | 9.7 | 0.00 | 0.00 | 0.00 | 76 | 1015.4 |
| 20260507152306 | 12 | 113 | 1.6 | 9.7 | 0.00 | 0.00 | 0.00 | 76 | 1015.7 |
| 20260507152216 | 12 | 113 | 1.6 | 9.7 | 0.00 | 0.00 | 0.00 | 76 | 1015.7 |
| 20260507152204 | 12 | 109 | 3.2 | 9.7 | 0.00 | 0.00 | 0.00 | 76 | 1015.6 |
| 20260507151903 | 12 | 96 | 3.2 | 6.4 | 0.00 | 0.00 | 0.00 | 76 | 1015.5 |
| 20260507151804 | 12 | 89 | 3.2 | 6.4 | 0.00 | 0.00 | 0.00 | 76 | 1015.5 |
| 20260507151703 | 12 | 86 | 3.2 | 6.4 | 0.00 | 0.00 | 0.00 | 76 | 1015.7 |
| 20260507151603 | 12 | 78 | 3.2 | 11.3 | 0.00 | 0.00 | 0.00 | 76 | 1015.5 |
| 20260507151504 | 12 | 79 | 3.2 | 11.3 | 0.00 | 0.00 | 0.00 | 76 | 1015.3 |
| 20260507151403 | 12 | 78 | 3.2 | 11.3 | 0.00 | 0.00 | 0.00 | 76 | 1015.5 |
| 20260507151313 | 12 | 78 | 3.2 | 11.3 | 0.00 | 0.00 | 0.00 | 76 | 1015.5 |
| 20260507151303 | 12 | 78 | 3.2 | 11.3 | 0.00 | 0.00 | 0.00 | 76 | 1015.5 |
| 20260507151203 | 12 | 80 | 3.2 | 11.3 | 0.00 | 0.00 | 0.00 | 76 | 1015.5 |
| 20260507151003 | 12 | 83 | 3.2 | 11.3 | 0.00 | 0.00 | 0.00 | 76 | 1015.5 |
| 20260507150912 | 12 | 83 | 3.2 | 11.3 | 0.00 | 0.00 | 0.00 | 76 | 1015.5 |
| 20260507150903 | 12 | 82 | 3.2 | 11.3 | 0.00 | 0.00 | 0.00 | 76 | 1015.6 |
| 20260507150804 | 12 | 87 | 3.2 | 11.3 | 0.00 | 0.00 | 0.00 | 76 | 1015.5 |
| 20260507150604 | 12 | 97 | 3.2 | 11.3 | 0.00 | 0.00 | 0.00 | 76 | 1015.5 |
| 20260507150503 | 12 | 96 | 3.2 | 11.3 | 0.00 | 0.00 | 0.00 | 76 | 1015.4 |
| 20260507150403 | 12 | 96 | 3.2 | 11.3 | 0.00 | 0.00 | 0.00 | 76 | 1015.4 |
| 20260507150303 | 12 | 99 | 3.2 | 11.3 | 0.00 | 0.00 | 0.00 | 76 | 1015.6 |
| 20260507150203 | 12 | 95 | 3.2 | 11.3 | 0.00 | 0.00 | 0.00 | 76 | 1015.7 |
| 20260507150004 | 12 | 101 | 3.2 | 11.3 | 0.00 | 0.00 | 0.00 | 76 | 1015.6 |
| 20260507145903 | 12 | 110 | 3.2 | 11.3 | 0.00 | 0.00 | 0.00 | 75 | 1015.5 |
| 20260507145803 | 12 | 104 | 3.2 | 11.3 | 0.00 | 0.00 | 0.00 | 75 | 1015.6 |
| 20260507145703 | 12 | 104 | 3.2 | 11.3 | 0.00 | 0.00 | 0.00 | 75 | 1015.4 |
| 20260507145603 | 12 | 107 | 3.2 | 11.3 | 0.00 | 0.00 | 0.00 | 75 | 1015.5 |
| 20260507145518 | 12 | 107 | 3.2 | 11.3 | 0.00 | 0.00 | 0.00 | 75 | 1015.5 |
| 20260507145504 | 12 | 101 | 3.2 | 11.3 | 0.00 | 0.00 | 0.00 | 75 | 1015.5 |
| 20260507145403 | 12 | 101 | 3.2 | 11.3 | 0.00 | 0.00 | 0.00 | 75 | 1015.5 |
| 20260507145203 | 12 | 104 | 3.2 | 11.3 | 0.00 | 0.00 | 0.00 | 75 | 1015.5 |
| 20260507145103 | 12 | 101 | 3.2 | 11.3 | 0.00 | 0.00 | 0.00 | 75 | 1015.4 |
| 20260507145003 | 12 | 100 | 3.2 | 11.3 | 0.00 | 0.00 | 0.00 | 75 | 1015.5 |
| 20260507144914 | 12 | 100 | 3.2 | 11.3 | 0.00 | 0.00 | 0.00 | 75 | 1015.5 |
| 20260507144904 | 12 | 97 | 3.2 | 11.3 | 0.00 | 0.00 | 0.00 | 75 | 1015.5 |
| 20260507144803 | 12 | 104 | 3.2 | 11.3 | 0.00 | 0.00 | 0.00 | 75 | 1015.5 |
| 20260507144603 | 12 | 109 | 3.2 | 11.3 | 0.00 | 0.00 | 0.00 | 75 | 1015.4 |
| 20260507144504 | 12 | 118 | 3.2 | 11.3 | 0.00 | 0.00 | 0.00 | 75 | 1015.6 |
| 20260507144403 | 12 | 125 | 3.2 | 11.3 | 0.00 | 0.00 | 0.00 | 75 | 1015.5 |
| 20260507144303 | 12 | 121 | 3.2 | 11.3 | 0.00 | 0.00 | 0.00 | 75 | 1015.8 |
| 20260507144214 | 12 | 121 | 3.2 | 11.3 | 0.00 | 0.00 | 0.00 | 75 | 1015.8 |
| 20260507144203 | 12 | 120 | 3.2 | 11.3 | 0.00 | 0.00 | 0.00 | 75 | 1015.7 |
| 20260507144103 | 12 | 116 | 3.2 | 11.3 | 0.00 | 0.03 | 0.00 | 75 | 1015.5 |
| 20260507143904 | 12 | 105 | 3.2 | 11.3 | 0.00 | 0.03 | 0.00 | 75 | 1015.6 |
| 20260507143803 | 12 | 114 | 3.2 | 11.3 | 0.00 | 0.03 | 0.00 | 75 | 1015.6 |
| 20260507143703 | 12 | 97 | 3.2 | 11.3 | 0.00 | 0.03 | 0.00 | 75 | 1015.5 |
| 20260507143603 | 12 | 98 | 3.2 | 9.7 | 0.00 | 0.03 | 0.00 | 75 | 1015.5 |
| 20260507143515 | 12 | 98 | 3.2 | 9.7 | 0.00 | 0.03 | 0.00 | 75 | 1015.5 |
| 20260507143503 | 12 | 91 | 3.2 | 9.7 | 0.00 | 0.03 | 0.00 | 75 | 1015.6 |
| 20260507143403 | 12 | 86 | 3.2 | 9.7 | 0.00 | 0.03 | 0.00 | 75 | 1015.6 |
| 20260507143203 | 12 | 92 | 3.2 | 9.7 | 0.00 | 0.05 | 0.00 | 74 | 1015.7 |
| 20260507143103 | 12 | 88 | 3.2 | 9.7 | 0.00 | 0.05 | 0.00 | 74 | 1015.7 |
| 20260507143004 | 12 | 90 | 3.2 | 9.7 | 0.00 | 0.05 | 0.00 | 74 | 1015.9 |
| 20260507142903 | 12 | 84 | 3.2 | 6.4 | 0.00 | 0.05 | 0.00 | 74 | 1015.7 |
| 20260507142803 | 12 | 80 | 3.2 | 6.4 | 0.00 | 0.05 | 0.00 | 74 | 1015.8 |
| 20260507142703 | 12 | 80 | 3.2 | 6.4 | 0.00 | 0.05 | 0.00 | 74 | 1015.7 |
| 20260507142617 | 12 | 80 | 3.2 | 6.4 | 0.00 | 0.05 | 0.00 | 74 | 1015.7 |
| 20260507142603 | 12 | 76 | 3.2 | 6.4 | 0.00 | 0.05 | 0.00 | 74 | 1015.6 |
| 20260507142503 | 12 | 74 | 3.2 | 6.4 | 0.00 | 0.05 | 0.00 | 74 | 1015.8 |
| 20260507142306 | 12 | 72 | 3.2 | 6.4 | 0.00 | 0.05 | 0.00 | 74 | 1015.6 |
| 20260507142204 | 12 | 69 | 3.2 | 6.4 | 0.00 | 0.05 | 0.00 | 74 | 1015.8 |
| 20260507142103 | 12 | 82 | 3.2 | 11.3 | 0.00 | 0.05 | 0.00 | 74 | 1015.7 |
| 20260507142003 | 12 | 85 | 3.2 | 11.3 | 0.00 | 0.05 | 0.00 | 74 | 1015.6 |
| 20260507141903 | 12 | 76 | 3.2 | 11.3 | 0.00 | 0.05 | 0.00 | 74 | 1015.7 |
| 20260507141804 | 12 | 63 | 3.2 | 11.3 | 0.00 | 0.05 | 0.00 | 74 | 1015.7 |
| 20260507141703 | 12 | 67 | 3.2 | 11.3 | 0.00 | 0.05 | 0.00 | 74 | 1015.8 |
| 20260507141604 | 12 | 60 | 3.2 | 11.3 | 0.00 | 0.05 | 0.00 | 74 | 1015.8 |
| 20260507141503 | 12 | 66 | 3.2 | 11.3 | 0.00 | 0.05 | 0.00 | 74 | 1015.8 |
| 20260507141403 | 12 | 63 | 3.2 | 11.3 | 0.00 | 0.05 | 0.00 | 74 | 1015.8 |
| 20260507141303 | 12 | 52 | 3.2 | 11.3 | 0.00 | 0.05 | 0.00 | 74 | 1015.6 |
| 20260507141203 | 12 | 58 | 3.2 | 11.3 | 0.00 | 0.05 | 0.00 | 74 | 1015.7 |
| 20260507141104 | 12 | 56 | 3.2 | 11.3 | 0.00 | 0.05 | 0.00 | 73 | 1015.8 |
| 20260507141003 | 12 | 58 | 3.2 | 11.3 | 0.00 | 0.05 | 0.00 | 74 | 1015.8 |
| 20260507140913 | 12 | 58 | 3.2 | 11.3 | 0.00 | 0.05 | 0.00 | 74 | 1015.8 |
| 20260507140903 | 12 | 67 | 3.2 | 11.3 | 0.00 | 0.05 | 0.00 | 74 | 1015.7 |
| 20260507140803 | 12 | 81 | 3.2 | 11.3 | 0.00 | 0.05 | 0.00 | 74 | 1015.9 |
| 20260507140715 | 12 | 81 | 3.2 | 11.3 | 0.00 | 0.05 | 0.00 | 74 | 1015.9 |
| 20260507140603 | 12 | 96 | 3.2 | 11.3 | 0.00 | 0.05 | 0.00 | 74 | 1015.8 |
| 20260507140416 | 12 | 97 | 3.2 | 11.3 | 0.00 | 0.05 | 0.00 | 74 | 1015.9 |
| 20260507140403 | 12 | 95 | 3.2 | 11.3 | 0.00 | 0.05 | 0.00 | 73 | 1015.9 |
| 20260507140303 | 12 | 110 | 3.2 | 11.3 | 0.00 | 0.05 | 0.00 | 73 | 1015.7 |
| 20260507140003 | 12 | 98 | 3.2 | 11.3 | 0.00 | 0.05 | 0.00 | 73 | 1015.7 |
| 20260507135914 | 12 | 98 | 3.2 | 11.3 | 0.00 | 0.05 | 0.00 | 73 | 1015.7 |
| 20260507135903 | 12 | 97 | 3.2 | 11.3 | 0.00 | 0.05 | 0.00 | 73 | 1015.8 |
| 20260507135803 | 12 | 96 | 3.2 | 11.3 | 0.00 | 0.05 | 0.00 | 73 | 1015.9 |
| 20260507135603 | 12 | 94 | 3.2 | 11.3 | 0.00 | 0.05 | 0.00 | 73 | 1015.9 |
| 20260507135503 | 12 | 88 | 3.2 | 9.7 | 0.00 | 0.05 | 0.00 | 73 | 1015.8 |
| 20260507135417 | 12 | 88 | 3.2 | 9.7 | 0.00 | 0.05 | 0.00 | 73 | 1015.8 |
| 20260507135403 | 12 | 99 | 3.2 | 9.7 | 0.00 | 0.05 | 0.00 | 73 | 1015.7 |
| 20260507135306 | 12 | 91 | 4.8 | 9.7 | 0.00 | 0.05 | 0.00 | 73 | 1015.6 |
| 20260507135103 | 12 | 76 | 4.8 | 9.7 | 0.00 | 0.05 | 0.00 | 73 | 1015.6 |
| 20260507135004 | 12 | 86 | 3.2 | 9.7 | 0.00 | 0.05 | 0.00 | 73 | 1015.6 |
| 20260507134903 | 12 | 86 | 3.2 | 11.3 | 0.00 | 0.05 | 0.00 | 73 | 1015.8 |
| 20260507134803 | 12 | 87 | 3.2 | 11.3 | 0.00 | 0.05 | 0.00 | 73 | 1015.8 |
| 20260507134717 | 12 | 87 | 3.2 | 11.3 | 0.00 | 0.05 | 0.00 | 73 | 1015.8 |
| 20260507134703 | 12 | 79 | 3.2 | 11.3 | 0.00 | 0.05 | 0.00 | 73 | 1015.9 |
| 20260507134603 | 12 | 83 | 3.2 | 11.3 | 0.00 | 0.05 | 0.00 | 73 | 1015.6 |
| 20260507134403 | 12 | 80 | 3.2 | 11.3 | 0.00 | 0.05 | 0.00 | 73 | 1015.8 |
| 20260507134317 | 12 | 80 | 3.2 | 11.3 | 0.00 | 0.05 | 0.00 | 73 | 1015.8 |
| 20260507134303 | 12 | 80 | 3.2 | 11.3 | 0.00 | 0.05 | 0.00 | 73 | 1015.7 |
| 20260507134203 | 12 | 82 | 3.2 | 11.3 | 0.00 | 0.05 | 0.00 | 73 | 1015.8 |
| 20260507134114 | 12 | 82 | 3.2 | 11.3 | 0.00 | 0.05 | 0.00 | 73 | 1015.8 |
| 20260507134003 | 12 | 95 | 3.2 | 11.3 | 0.00 | 0.05 | 0.00 | 73 | 1015.7 |
| 20260507133916 | 12 | 95 | 3.2 | 11.3 | 0.00 | 0.05 | 0.00 | 73 | 1015.7 |
| 20260507133804 | 12 | 88 | 3.2 | 11.3 | 0.00 | 0.05 | 0.00 | 73 | 1015.7 |
| 20260507133617 | 12 | 92 | 3.2 | 11.3 | 0.00 | 0.05 | 0.00 | 73 | 1015.7 |
| 20260507133603 | 12 | 93 | 4.8 | 11.3 | 0.00 | 0.05 | 0.00 | 73 | 1015.6 |
| 20260507133503 | 12 | 98 | 3.2 | 11.3 | 0.00 | 0.05 | 0.00 | 73 | 1015.8 |
| 20260507133414 | 12 | 98 | 3.2 | 11.3 | 0.00 | 0.05 | 0.00 | 73 | 1015.8 |
| 20260507133303 | 12 | 110 | 4.8 | 11.3 | 0.00 | 0.05 | 0.00 | 73 | 1015.8 |
| 20260507133103 | 12 | 114 | 4.8 | 11.3 | 0.00 | 0.05 | 0.00 | 73 | 1015.7 |
| 20260507133003 | 12 | 111 | 3.2 | 11.3 | 0.00 | 0.05 | 0.00 | 73 | 1015.8 |
| 20260507132903 | 12 | 111 | 3.2 | 11.3 | 0.00 | 0.05 | 0.00 | 72 | 1015.7 |
| 20260507132803 | 12 | 123 | 3.2 | 11.3 | 0.00 | 0.05 | 0.00 | 72 | 1015.8 |
| 20260507132704 | 12 | 128 | 3.2 | 11.3 | 0.00 | 0.05 | 0.00 | 72 | 1015.8 |
| 20260507132603 | 12 | 125 | 3.2 | 11.3 | 0.00 | 0.05 | 0.00 | 72 | 1015.7 |
| 20260507132516 | 12 | 125 | 3.2 | 11.3 | 0.00 | 0.05 | 0.00 | 72 | 1015.7 |
| 20260507132503 | 12 | 113 | 3.2 | 11.3 | 0.00 | 0.05 | 0.00 | 72 | 1015.6 |
| 20260507132415 | 12 | 113 | 3.2 | 11.3 | 0.00 | 0.05 | 0.00 | 72 | 1015.6 |
| 20260507132403 | 12 | 98 | 3.2 | 11.3 | 0.00 | 0.05 | 0.00 | 72 | 1015.8 |
| 20260507132104 | 12 | 107 | 3.2 | 11.3 | 0.00 | 0.05 | 0.00 | 72 | 1015.6 |
| 20260507132003 | 12 | 108 | 4.8 | 11.3 | 0.00 | 0.05 | 0.00 | 72 | 1015.8 |
| 20260507131903 | 12 | 116 | 4.8 | 11.3 | 0.00 | 0.05 | 0.00 | 71 | 1015.7 |
| 20260507131803 | 12 | 112 | 4.8 | 11.3 | 0.00 | 0.05 | 0.00 | 71 | 1015.6 |
| 20260507131704 | 12 | 113 | 4.8 | 11.3 | 0.00 | 0.05 | 0.00 | 71 | 1015.9 |
| 20260507131603 | 12 | 117 | 4.8 | 11.3 | 0.00 | 0.05 | 0.00 | 71 | 1015.8 |
| 20260507131517 | 12 | 117 | 4.8 | 11.3 | 0.00 | 0.05 | 0.00 | 71 | 1015.8 |
| 20260507131504 | 12 | 129 | 4.8 | 11.3 | 0.00 | 0.05 | 0.00 | 71 | 1015.8 |
| 20260507131403 | 13 | 131 | 4.8 | 11.3 | 0.00 | 0.05 | 0.00 | 71 | 1015.7 |
| 20260507131203 | 13 | 125 | 3.2 | 11.3 | 0.00 | 0.05 | 0.00 | 71 | 1015.8 |
| 20260507131116 | 13 | 125 | 3.2 | 11.3 | 0.00 | 0.05 | 0.00 | 71 | 1015.8 |
| 20260507131103 | 13 | 127 | 3.2 | 11.3 | 0.00 | 0.05 | 0.00 | 71 | 1015.8 |
| 20260507131003 | 13 | 124 | 3.2 | 14.5 | 0.00 | 0.05 | 0.00 | 71 | 1015.7 |
| 20260507130914 | 13 | 124 | 3.2 | 14.5 | 0.00 | 0.05 | 0.00 | 71 | 1015.7 |
| 20260507130803 | 13 | 106 | 4.8 | 14.5 | 0.00 | 0.05 | 0.00 | 71 | 1015.7 |
| 20260507130614 | 13 | 96 | 4.8 | 14.5 | 0.00 | 0.05 | 0.00 | 71 | 1015.8 |
| 20260507130603 | 13 | 90 | 4.8 | 14.5 | 0.00 | 0.05 | 0.00 | 71 | 1015.6 |
| 20260507130513 | 13 | 90 | 4.8 | 14.5 | 0.00 | 0.05 | 0.00 | 71 | 1015.6 |
| 20260507130504 | 13 | 82 | 4.8 | 14.5 | 0.00 | 0.05 | 0.00 | 71 | 1015.8 |
| 20260507130203 | 13 | 81 | 4.8 | 14.5 | 0.00 | 0.05 | 0.00 | 71 | 1016.0 |
| 20260507130112 | 13 | 81 | 4.8 | 14.5 | 0.00 | 0.05 | 0.00 | 71 | 1016.0 |
| 20260507130003 | 13 | 79 | 3.2 | 14.5 | 0.00 | 0.05 | 0.00 | 71 | 1015.9 |
| 20260507125813 | 13 | 84 | 4.8 | 14.5 | 0.00 | 0.05 | 0.00 | 71 | 1015.8 |
| 20260507125804 | 13 | 80 | 4.8 | 11.3 | 0.00 | 0.05 | 0.00 | 71 | 1015.8 |
| 20260507125717 | 13 | 80 | 4.8 | 11.3 | 0.00 | 0.05 | 0.00 | 71 | 1015.8 |
| 20260507125703 | 13 | 90 | 3.2 | 9.7 | 0.00 | 0.05 | 0.00 | 72 | 1016.0 |
| 20260507125403 | 13 | 100 | 3.2 | 9.7 | 0.00 | 0.05 | 0.00 | 72 | 1015.8 |
| 20260507125306 | 13 | 96 | 3.2 | 9.7 | 0.00 | 0.05 | 0.00 | 72 | 1015.9 |
| 20260507125203 | 13 | 97 | 3.2 | 9.7 | 0.00 | 0.05 | 0.00 | 72 | 1015.9 |
| 20260507125108 | 13 | 97 | 3.2 | 9.7 | 0.00 | 0.05 | 0.00 | 72 | 1015.9 |
| 20260507125003 | 12 | 92 | 3.2 | 9.7 | 0.00 | 0.05 | 0.00 | 72 | 1015.8 |
| 20260507124903 | 12 | 91 | 3.2 | 9.7 | 0.00 | 0.05 | 0.00 | 72 | 1015.8 |
| 20260507124804 | 12 | 101 | 3.2 | 9.7 | 0.00 | 0.05 | 0.00 | 72 | 1015.9 |
| 20260507124704 | 12 | 102 | 3.2 | 9.7 | 0.00 | 0.05 | 0.00 | 72 | 1015.9 |
| 20260507124616 | 12 | 102 | 3.2 | 9.7 | 0.00 | 0.05 | 0.00 | 72 | 1015.9 |
| 20260507124603 | 12 | 98 | 3.2 | 9.7 | 0.00 | 0.05 | 0.00 | 72 | 1015.9 |
| 20260507124503 | 12 | 93 | 3.2 | 9.7 | 0.00 | 0.05 | 0.00 | 72 | 1015.9 |
| 20260507124303 | 12 | 89 | 3.2 | 9.7 | 0.00 | 0.05 | 0.00 | 73 | 1015.7 |
| 20260507124203 | 12 | 88 | 3.2 | 12.9 | 0.00 | 0.05 | 0.00 | 73 | 1016.0 |
| 20260507124104 | 12 | 92 | 3.2 | 12.9 | 0.00 | 0.05 | 0.00 | 73 | 1015.8 |
| 20260507124013 | 12 | 92 | 3.2 | 12.9 | 0.00 | 0.05 | 0.00 | 73 | 1015.8 |
| 20260507124003 | 12 | 102 | 3.2 | 12.9 | 0.00 | 0.05 | 0.00 | 73 | 1015.8 |
| 20260507123903 | 12 | 103 | 3.2 | 12.9 | 0.00 | 0.05 | 0.00 | 73 | 1015.9 |
| 20260507123703 | 12 | 93 | 3.2 | 12.9 | 0.00 | 0.05 | 0.00 | 73 | 1015.7 |
| 20260507123604 | 12 | 96 | 3.2 | 12.9 | 0.00 | 0.05 | 0.00 | 73 | 1015.9 |
| 20260507123503 | 12 | 103 | 3.2 | 12.9 | 0.00 | 0.05 | 0.00 | 72 | 1015.9 |
| 20260507123404 | 12 | 99 | 3.2 | 12.9 | 0.00 | 0.05 | 0.00 | 73 | 1015.8 |
| 20260507123303 | 12 | 107 | 3.2 | 12.9 | 0.00 | 0.05 | 0.00 | 73 | 1015.8 |
| 20260507123203 | 12 | 111 | 3.2 | 12.9 | 0.00 | 0.05 | 0.00 | 72 | 1016.0 |
| 20260507123103 | 12 | 109 | 3.2 | 12.9 | 0.00 | 0.05 | 0.00 | 72 | 1015.7 |
| 20260507123003 | 12 | 99 | 3.2 | 11.3 | 0.00 | 0.05 | 0.00 | 72 | 1015.7 |
| 20260507122903 | 12 | 88 | 3.2 | 11.3 | 0.00 | 0.05 | 0.00 | 72 | 1015.9 |
| 20260507122803 | 12 | 92 | 3.2 | 11.3 | 0.00 | 0.05 | 0.00 | 72 | 1015.8 |
| 20260507122703 | 12 | 92 | 3.2 | 9.7 | 0.00 | 0.05 | 0.00 | 72 | 1015.7 |
| 20260507122603 | 12 | 86 | 1.6 | 9.7 | 0.00 | 0.05 | 0.00 | 72 | 1015.8 |
| 20260507122504 | 12 | 67 | 3.2 | 9.7 | 0.00 | 0.05 | 0.00 | 72 | 1015.8 |
| 20260507122403 | 12 | 79 | 3.2 | 9.7 | 0.00 | 0.05 | 0.00 | 72 | 1015.7 |
| 20260507122307 | 12 | 70 | 3.2 | 9.7 | 0.00 | 0.05 | 0.00 | 72 | 1015.8 |
| 20260507122204 | 12 | 73 | 3.2 | 9.7 | 0.00 | 0.05 | 0.00 | 72 | 1015.9 |
| 20260507122103 | 12 | 70 | 3.2 | 9.7 | 0.00 | 0.05 | 0.00 | 72 | 1015.8 |
| 20260507122004 | 12 | 65 | 3.2 | 9.7 | 0.00 | 0.05 | 0.00 | 72 | 1015.7 |
| 20260507121913 | 12 | 65 | 3.2 | 9.7 | 0.00 | 0.05 | 0.00 | 72 | 1015.7 |
| 20260507121904 | 12 | 77 | 3.2 | 9.7 | 0.00 | 0.05 | 0.00 | 72 | 1015.7 |
| 20260507121817 | 12 | 77 | 3.2 | 9.7 | 0.00 | 0.05 | 0.00 | 72 | 1015.7 |
| 20260507121803 | 12 | 80 | 3.2 | 9.7 | 0.00 | 0.05 | 0.00 | 72 | 1015.9 |
| 20260507121503 | 12 | 96 | 3.2 | 9.7 | 0.00 | 0.05 | 0.00 | 72 | 1015.9 |
| 20260507121416 | 12 | 96 | 3.2 | 9.7 | 0.00 | 0.05 | 0.00 | 72 | 1015.9 |
| 20260507121403 | 12 | 101 | 3.2 | 9.7 | 0.00 | 0.05 | 0.00 | 72 | 1015.7 |
| 20260507121303 | 12 | 110 | 3.2 | 9.7 | 0.00 | 0.05 | 0.00 | 72 | 1015.9 |
| 20260507121103 | 12 | 95 | 3.2 | 9.7 | 0.00 | 0.05 | 0.00 | 71 | 1015.8 |
| 20260507121003 | 12 | 103 | 3.2 | 9.7 | 0.00 | 0.05 | 0.00 | 72 | 1015.8 |
| 20260507120914 | 12 | 103 | 3.2 | 9.7 | 0.00 | 0.05 | 0.00 | 72 | 1015.8 |
| 20260507120903 | 12 | 100 | 3.2 | 9.7 | 0.00 | 0.05 | 0.00 | 72 | 1015.8 |
| 20260507120803 | 12 | 100 | 3.2 | 9.7 | 0.00 | 0.05 | 0.00 | 72 | 1015.8 |
| 20260507120603 | 12 | 82 | 3.2 | 9.7 | 0.00 | 0.05 | 0.00 | 72 | 1015.7 |
| 20260507120514 | 12 | 82 | 3.2 | 9.7 | 0.00 | 0.05 | 0.00 | 72 | 1015.7 |
| 20260507120503 | 12 | 84 | 3.2 | 9.7 | 0.00 | 0.05 | 0.00 | 72 | 1015.8 |
| 20260507120412 | 12 | 84 | 3.2 | 9.7 | 0.00 | 0.05 | 0.00 | 72 | 1015.8 |
| 20260507120403 | 12 | 87 | 3.2 | 9.7 | 0.00 | 0.05 | 0.00 | 72 | 1015.8 |
| 20260507120215 | 12 | 86 | 3.2 | 9.7 | 0.00 | 0.05 | 0.00 | 72 | 1015.8 |
| 20260507120113 | 12 | 90 | 3.2 | 9.7 | 0.00 | 0.05 | 0.00 | 72 | 1015.9 |
| 20260507120103 | 12 | 93 | 3.2 | 9.7 | 0.00 | 0.05 | 0.00 | 72 | 1015.7 |
| 20260507120017 | 12 | 93 | 3.2 | 9.7 | 0.00 | 0.05 | 0.00 | 72 | 1015.7 |
| 20260507115915 | 12 | 89 | 1.6 | 9.7 | 0.00 | 0.05 | 0.00 | 72 | 1015.8 |
| 20260507115712 | 12 | 96 | 3.2 | 9.7 | 0.00 | 0.05 | 0.00 | 72 | 1015.7 |
| 20260507115603 | 12 | 97 | 3.2 | 9.7 | 0.00 | 0.05 | 0.00 | 71 | 1015.9 |
| 20260507115403 | 12 | 91 | 3.2 | 6.4 | 0.00 | 0.05 | 0.00 | 72 | 1016.0 |
| 20260507115307 | 12 | 83 | 3.2 | 6.4 | 0.00 | 0.05 | 0.00 | 72 | 1016.0 |
| 20260507115203 | 12 | 86 | 1.6 | 6.4 | 0.00 | 0.05 | 0.00 | 72 | 1016.2 |
| 20260507115114 | 12 | 86 | 1.6 | 6.4 | 0.00 | 0.05 | 0.00 | 72 | 1016.2 |
| 20260507115103 | 12 | 82 | 1.6 | 6.4 | 0.00 | 0.05 | 0.00 | 72 | 1016.1 |
| 20260507115018 | 12 | 82 | 1.6 | 6.4 | 0.00 | 0.05 | 0.00 | 72 | 1016.1 |
| 20260507115003 | 12 | 87 | 1.6 | 6.4 | 0.00 | 0.05 | 0.00 | 72 | 1015.9 |
| 20260507114815 | 12 | 85 | 3.2 | 6.4 | 0.00 | 0.05 | 0.00 | 72 | 1015.9 |
| 20260507114704 | 12 | 104 | 3.2 | 11.3 | 0.00 | 0.05 | 0.00 | 71 | 1016.0 |
| 20260507114504 | 12 | 101 | 3.2 | 11.3 | 0.00 | 0.05 | 0.00 | 71 | 1016.2 |
| 20260507114403 | 12 | 98 | 3.2 | 11.3 | 0.00 | 0.05 | 0.00 | 71 | 1015.9 |
| 20260507114304 | 12 | 92 | 3.2 | 11.3 | 0.00 | 0.05 | 0.00 | 71 | 1015.9 |
| 20260507114204 | 12 | 94 | 3.2 | 11.3 | 0.00 | 0.05 | 0.00 | 71 | 1015.9 |
| 20260507114104 | 12 | 95 | 3.2 | 11.3 | 0.00 | 0.05 | 0.00 | 71 | 1015.8 |
| 20260507114003 | 12 | 83 | 3.2 | 11.3 | 0.00 | 0.05 | 0.00 | 71 | 1015.8 |
| 20260507113903 | 12 | 85 | 3.2 | 11.3 | 0.00 | 0.05 | 0.00 | 71 | 1015.8 |
| 20260507113803 | 12 | 82 | 3.2 | 11.3 | 0.00 | 0.05 | 0.00 | 70 | 1015.9 |
| 20260507113703 | 12 | 79 | 3.2 | 11.3 | 0.00 | 0.05 | 0.00 | 70 | 1015.9 |
| 20260507113603 | 12 | 75 | 3.2 | 11.3 | 0.00 | 0.05 | 0.00 | 70 | 1016.0 |
| 20260507113503 | 12 | 91 | 3.2 | 11.3 | 0.00 | 0.05 | 0.00 | 70 | 1016.0 |
| 20260507113403 | 12 | 94 | 3.2 | 11.3 | 0.00 | 0.05 | 0.00 | 70 | 1015.8 |
| 20260507113304 | 12 | 93 | 3.2 | 11.3 | 0.00 | 0.05 | 0.00 | 70 | 1016.1 |
| 20260507113212 | 12 | 93 | 3.2 | 11.3 | 0.00 | 0.05 | 0.00 | 70 | 1016.1 |
| 20260507113203 | 12 | 93 | 3.2 | 11.3 | 0.00 | 0.05 | 0.00 | 70 | 1015.8 |
| 20260507113103 | 12 | 93 | 3.2 | 11.3 | 0.00 | 0.05 | 0.00 | 70 | 1015.8 |
| 20260507112903 | 12 | 99 | 3.2 | 11.3 | 0.00 | 0.05 | 0.00 | 70 | 1015.9 |
| 20260507112804 | 12 | 96 | 3.2 | 11.3 | 0.00 | 0.05 | 0.00 | 69 | 1015.8 |
| 20260507112715 | 12 | 96 | 3.2 | 11.3 | 0.00 | 0.05 | 0.00 | 69 | 1015.8 |
| 20260507112703 | 12 | 98 | 3.2 | 11.3 | 0.00 | 0.05 | 0.00 | 69 | 1015.9 |
| 20260507112603 | 12 | 91 | 3.2 | 11.3 | 0.00 | 0.05 | 0.00 | 69 | 1015.9 |
| 20260507112512 | 12 | 91 | 3.2 | 11.3 | 0.00 | 0.05 | 0.00 | 69 | 1015.9 |
| 20260507112403 | 12 | 88 | 3.2 | 12.9 | 0.00 | 0.05 | 0.00 | 69 | 1016.1 |
| 20260507112203 | 12 | 108 | 3.2 | 12.9 | 0.00 | 0.05 | 0.00 | 69 | 1016.0 |
| 20260507112103 | 12 | 106 | 3.2 | 12.9 | 0.00 | 0.05 | 0.00 | 69 | 1015.9 |
| 20260507112003 | 12 | 108 | 3.2 | 12.9 | 0.00 | 0.05 | 0.00 | 69 | 1016.0 |
| 20260507111904 | 12 | 102 | 3.2 | 12.9 | 0.00 | 0.05 | 0.00 | 69 | 1016.0 |
| 20260507111803 | 12 | 104 | 3.2 | 12.9 | 0.00 | 0.05 | 0.00 | 69 | 1016.0 |
| 20260507111703 | 12 | 108 | 3.2 | 12.9 | 0.00 | 0.05 | 0.00 | 68 | 1016.0 |
| 20260507111603 | 12 | 113 | 3.2 | 12.9 | 0.00 | 0.05 | 0.00 | 68 | 1016.0 |
| 20260507111513 | 12 | 113 | 3.2 | 12.9 | 0.00 | 0.05 | 0.00 | 68 | 1016.0 |
| 20260507111504 | 12 | 114 | 3.2 | 12.9 | 0.00 | 0.05 | 0.00 | 68 | 1015.9 |
| 20260507111403 | 13 | 113 | 3.2 | 12.9 | 0.00 | 0.05 | 0.00 | 68 | 1016.0 |
| 20260507111203 | 13 | 99 | 3.2 | 9.7 | 0.00 | 0.05 | 0.00 | 67 | 1016.0 |
| 20260507111103 | 13 | 106 | 3.2 | 9.7 | 0.00 | 0.05 | 0.00 | 67 | 1016.1 |
| 20260507111003 | 13 | 98 | 3.2 | 6.4 | 0.00 | 0.05 | 0.00 | 67 | 1016.0 |
| 20260507110904 | 13 | 103 | 1.6 | 6.4 | 0.00 | 0.05 | 0.00 | 67 | 1015.9 |
| 20260507110803 | 13 | 100 | 1.6 | 6.4 | 0.00 | 0.05 | 0.00 | 68 | 1015.9 |
| 20260507110703 | 13 | 97 | 1.6 | 6.4 | 0.00 | 0.05 | 0.00 | 68 | 1015.9 |
| 20260507110603 | 13 | 91 | 1.6 | 6.4 | 0.00 | 0.05 | 0.00 | 68 | 1016.0 |
| 20260507110504 | 13 | 93 | 1.6 | 6.4 | 0.00 | 0.05 | 0.00 | 68 | 1016.2 |
| 20260507110403 | 13 | 87 | 1.6 | 6.4 | 0.00 | 0.05 | 0.00 | 68 | 1016.1 |
| 20260507110304 | 13 | 84 | 3.2 | 6.4 | 0.00 | 0.05 | 0.00 | 68 | 1016.0 |
| 20260507110203 | 13 | 84 | 3.2 | 6.4 | 0.00 | 0.05 | 0.00 | 68 | 1015.9 |
| 20260507110003 | 13 | 88 | 1.6 | 6.4 | 0.00 | 0.05 | 0.00 | 67 | 1015.8 |
| 20260507105904 | 13 | 82 | 1.6 | 6.4 | 0.00 | 0.05 | 0.00 | 67 | 1015.9 |
| 20260507105815 | 13 | 82 | 1.6 | 6.4 | 0.00 | 0.05 | 0.00 | 67 | 1015.9 |
| 20260507105804 | 13 | 80 | 3.2 | 6.4 | 0.00 | 0.05 | 0.00 | 67 | 1016.0 |
| 20260507105713 | 13 | 80 | 3.2 | 6.4 | 0.00 | 0.05 | 0.00 | 67 | 1016.0 |
| 20260507105703 | 13 | 79 | 3.2 | 6.4 | 0.00 | 0.05 | 0.00 | 66 | 1015.9 |
| 20260507105403 | 13 | 73 | 3.2 | 6.4 | 0.00 | 0.05 | 0.00 | 66 | 1016.0 |
| 20260507105306 | 13 | 76 | 1.6 | 6.4 | 0.00 | 0.05 | 0.00 | 66 | 1016.0 |
| 20260507105203 | 13 | 76 | 1.6 | 6.4 | 0.00 | 0.05 | 0.00 | 66 | 1016.0 |
| 20260507105103 | 13 | 78 | 1.6 | 6.4 | 0.00 | 0.05 | 0.00 | 66 | 1016.2 |
| 20260507105003 | 13 | 81 | 1.6 | 6.4 | 0.00 | 0.05 | 0.00 | 66 | 1016.2 |
| 20260507104903 | 13 | 88 | 1.6 | 6.4 | 0.00 | 0.05 | 0.00 | 65 | 1016.2 |
| 20260507104815 | 13 | 88 | 1.6 | 6.4 | 0.00 | 0.05 | 0.00 | 65 | 1016.2 |
| 20260507104803 | 13 | 86 | 1.6 | 6.4 | 0.00 | 0.05 | 0.00 | 65 | 1016.0 |
| 20260507104714 | 13 | 86 | 1.6 | 6.4 | 0.00 | 0.05 | 0.00 | 65 | 1016.0 |
| 20260507104703 | 13 | 90 | 1.6 | 6.4 | 0.00 | 0.05 | 0.00 | 65 | 1016.2 |
| 20260507104613 | 13 | 90 | 1.6 | 6.4 | 0.00 | 0.05 | 0.00 | 65 | 1016.2 |
| 20260507104415 | 14 | 84 | 1.6 | 6.4 | 0.00 | 0.05 | 0.00 | 65 | 1016.0 |
| 20260507104304 | 14 | 93 | 1.6 | 6.4 | 0.00 | 0.05 | 0.00 | 64 | 1016.3 |
| 20260507104103 | 14 | 88 | 3.2 | 6.4 | 0.00 | 0.05 | 0.00 | 65 | 1016.0 |
| 20260507104015 | 14 | 88 | 3.2 | 6.4 | 0.00 | 0.05 | 0.00 | 65 | 1016.0 |
| 20260507104003 | 14 | 81 | 3.2 | 6.4 | 0.00 | 0.05 | 0.00 | 65 | 1016.1 |
| 20260507103903 | 14 | 72 | 3.2 | 6.4 | 0.00 | 0.05 | 0.00 | 65 | 1016.1 |
| 20260507103703 | 14 | 68 | 3.2 | 6.4 | 0.00 | 0.05 | 0.00 | 64 | 1016.2 |
| 20260507103607 | 14 | 77 | 3.2 | 6.4 | 0.00 | 0.05 | 0.00 | 64 | 1016.2 |
| 20260507103503 | 14 | 70 | 3.2 | 6.4 | 0.00 | 0.05 | 0.00 | 64 | 1016.0 |
| 20260507103416 | 14 | 70 | 3.2 | 6.4 | 0.00 | 0.05 | 0.00 | 64 | 1016.0 |
| 20260507103403 | 14 | 76 | 3.2 | 6.4 | 0.00 | 0.05 | 0.00 | 65 | 1016.2 |
| 20260507103304 | 14 | 73 | 3.2 | 6.4 | 0.00 | 0.05 | 0.00 | 65 | 1016.2 |
| 20260507103104 | 14 | 77 | 3.2 | 6.4 | 0.00 | 0.05 | 0.00 | 66 | 1016.1 |
| 20260507103003 | 14 | 84 | 3.2 | 9.7 | 0.00 | 0.05 | 0.00 | 66 | 1016.2 |
| 20260507102914 | 14 | 84 | 3.2 | 9.7 | 0.00 | 0.05 | 0.00 | 66 | 1016.2 |
| 20260507102903 | 14 | 98 | 3.2 | 9.7 | 0.00 | 0.05 | 0.00 | 66 | 1016.1 |
| 20260507102817 | 14 | 98 | 3.2 | 9.7 | 0.00 | 0.05 | 0.00 | 66 | 1016.1 |
| 20260507102803 | 14 | 105 | 3.2 | 9.7 | 0.00 | 0.05 | 0.00 | 66 | 1016.2 |
| 20260507102513 | 14 | 103 | 3.2 | 9.7 | 0.00 | 0.05 | 0.00 | 66 | 1016.0 |
| 20260507102504 | 14 | 111 | 3.2 | 9.7 | 0.00 | 0.05 | 0.00 | 66 | 1016.2 |
| 20260507102403 | 14 | 97 | 3.2 | 9.7 | 0.00 | 0.05 | 0.00 | 66 | 1016.2 |
| 20260507102204 | 14 | 80 | 3.2 | 9.7 | 0.00 | 0.05 | 0.00 | 66 | 1016.2 |
| 20260507102103 | 13 | 85 | 3.2 | 9.7 | 0.00 | 0.05 | 0.00 | 66 | 1016.2 |
| 20260507102003 | 13 | 83 | 3.2 | 9.7 | 0.00 | 0.05 | 0.00 | 66 | 1016.3 |
| 20260507101915 | 13 | 83 | 3.2 | 9.7 | 0.00 | 0.05 | 0.00 | 66 | 1016.3 |
| 20260507101903 | 13 | 78 | 3.2 | 9.7 | 0.00 | 0.05 | 0.00 | 66 | 1016.3 |
| 20260507101804 | 14 | 72 | 3.2 | 9.7 | 0.00 | 0.05 | 0.00 | 66 | 1016.0 |
| 20260507101604 | 13 | 55 | 3.2 | 9.7 | 0.00 | 0.05 | 0.00 | 66 | 1016.0 |
| 20260507101503 | 13 | 50 | 3.2 | 9.7 | 0.00 | 0.05 | 0.00 | 66 | 1016.1 |
| 20260507101403 | 13 | 63 | 3.2 | 9.7 | 0.00 | 0.05 | 0.00 | 66 | 1016.0 |
| 20260507101304 | 13 | 56 | 3.2 | 9.7 | 0.00 | 0.05 | 0.00 | 65 | 1016.1 |
| 20260507101203 | 13 | 61 | 3.2 | 9.7 | 0.00 | 0.05 | 0.00 | 65 | 1016.2 |
| 20260507101103 | 13 | 52 | 1.6 | 9.7 | 0.00 | 0.05 | 0.00 | 65 | 1016.1 |
| 20260507101003 | 13 | 48 | 1.6 | 9.7 | 0.00 | 0.05 | 0.00 | 65 | 1016.1 |
| 20260507100916 | 13 | 48 | 1.6 | 9.7 | 0.00 | 0.05 | 0.00 | 65 | 1016.1 |
| 20260507100903 | 13 | 43 | 1.6 | 9.7 | 0.00 | 0.05 | 0.00 | 65 | 1016.1 |
| 20260507100814 | 13 | 43 | 1.6 | 9.7 | 0.00 | 0.05 | 0.00 | 65 | 1016.1 |
| 20260507100803 | 14 | 32 | 1.6 | 9.7 | 0.00 | 0.05 | 0.00 | 65 | 1016.2 |
| 20260507100504 | 14 | 59 | 1.6 | 6.4 | 0.00 | 0.05 | 0.00 | 66 | 1016.1 |
| 20260507100403 | 14 | 64 | 1.6 | 6.4 | 0.00 | 0.05 | 0.00 | 66 | 1015.9 |
| 20260507100303 | 14 | 77 | 1.6 | 4.8 | 0.00 | 0.05 | 0.00 | 66 | 1016.1 |
| 20260507100203 | 14 | 70 | 1.6 | 9.7 | 0.00 | 0.05 | 0.00 | 66 | 1016.0 |
| 20260507100114 | 14 | 70 | 1.6 | 9.7 | 0.00 | 0.05 | 0.00 | 66 | 1016.0 |
| 20260507100103 | 14 | 64 | 3.2 | 9.7 | 0.00 | 0.05 | 0.00 | 66 | 1016.1 |
| 20260507100004 | 14 | 71 | 3.2 | 9.7 | 0.00 | 0.05 | 0.00 | 66 | 1016.1 |
| 20260507095917 | 14 | 71 | 3.2 | 9.7 | 0.00 | 0.05 | 0.00 | 66 | 1016.1 |
| 20260507095803 | 14 | 68 | 3.2 | 9.7 | 0.00 | 0.05 | 0.00 | 66 | 1016.1 |
| 20260507095603 | 13 | 74 | 3.2 | 9.7 | 0.00 | 0.05 | 0.00 | 65 | 1016.1 |
| 20260507095503 | 13 | 71 | 3.2 | 9.7 | 0.00 | 0.05 | 0.00 | 65 | 1015.9 |
| 20260507095403 | 13 | 70 | 3.2 | 9.7 | 0.00 | 0.05 | 0.00 | 65 | 1016.0 |
| 20260507095313 | 13 | 70 | 3.2 | 9.7 | 0.00 | 0.05 | 0.00 | 65 | 1016.0 |
| 20260507095306 | 14 | 59 | 3.2 | 9.7 | 0.00 | 0.05 | 0.00 | 65 | 1016.1 |
| 20260507095203 | 14 | 72 | 3.2 | 9.7 | 0.00 | 0.05 | 0.00 | 65 | 1016.1 |
| 20260507095004 | 14 | 67 | 1.6 | 6.4 | 0.00 | 0.05 | 0.00 | 65 | 1016.1 |
| 20260507094903 | 14 | 71 | 1.6 | 4.8 | 0.00 | 0.05 | 0.00 | 65 | 1016.0 |
| 20260507094803 | 14 | 88 | 1.6 | 4.8 | 0.00 | 0.05 | 0.00 | 65 | 1016.1 |
| 20260507094704 | 14 | 83 | 1.6 | 4.8 | 0.00 | 0.05 | 0.00 | 65 | 1016.0 |
| 20260507094603 | 14 | 82 | 1.6 | 4.8 | 0.00 | 0.05 | 0.00 | 66 | 1016.0 |
| 20260507094504 | 14 | 82 | 1.6 | 4.8 | 0.00 | 0.05 | 0.00 | 65 | 1016.1 |
| 20260507094415 | 14 | 82 | 1.6 | 4.8 | 0.00 | 0.05 | 0.00 | 65 | 1016.1 |
| 20260507094403 | 14 | 80 | 1.6 | 4.8 | 0.00 | 0.05 | 0.00 | 65 | 1016.0 |
| 20260507094303 | 14 | 89 | 1.6 | 6.4 | 0.00 | 0.05 | 0.00 | 66 | 1016.0 |
| 20260507094103 | 14 | 95 | 1.6 | 6.4 | 0.00 | 0.05 | 0.00 | 66 | 1016.1 |
| 20260507094003 | 14 | 99 | 1.6 | 6.4 | 0.00 | 0.05 | 0.00 | 66 | 1016.0 |
| 20260507093913 | 14 | 99 | 1.6 | 6.4 | 0.00 | 0.05 | 0.00 | 66 | 1016.0 |
| 20260507093903 | 14 | 99 | 1.6 | 6.4 | 0.00 | 0.05 | 0.00 | 67 | 1015.9 |
| 20260507093803 | 14 | 96 | 1.6 | 6.4 | 0.00 | 0.05 | 0.00 | 67 | 1016.1 |
| 20260507093614 | 13 | 96 | 1.6 | 6.4 | 0.00 | 0.05 | 0.00 | 68 | 1016.2 |
| 20260507093603 | 13 | 94 | 1.6 | 6.4 | 0.00 | 0.05 | 0.00 | 67 | 1015.9 |
| 20260507093504 | 13 | 95 | 1.6 | 6.4 | 0.00 | 0.05 | 0.00 | 67 | 1016.1 |
| 20260507093303 | 13 | 94 | 1.6 | 6.4 | 0.00 | 0.05 | 0.00 | 67 | 1016.1 |
| 20260507093203 | 13 | 99 | 1.6 | 6.4 | 0.00 | 0.05 | 0.00 | 67 | 1015.9 |
| 20260507093103 | 13 | 104 | 1.6 | 6.4 | 0.00 | 0.05 | 0.00 | 67 | 1016.0 |
| 20260507093016 | 13 | 104 | 1.6 | 6.4 | 0.00 | 0.05 | 0.00 | 67 | 1016.0 |
| 20260507093003 | 13 | 92 | 1.6 | 6.4 | 0.00 | 0.05 | 0.00 | 67 | 1016.1 |
| 20260507092903 | 13 | 91 | 1.6 | 6.4 | 0.00 | 0.05 | 0.00 | 67 | 1015.8 |
| 20260507092703 | 13 | 85 | 1.6 | 6.4 | 0.00 | 0.05 | 0.00 | 66 | 1016.0 |
| 20260507092615 | 13 | 85 | 1.6 | 6.4 | 0.00 | 0.05 | 0.00 | 66 | 1016.0 |
| 20260507092603 | 13 | 90 | 1.6 | 6.4 | 0.00 | 0.05 | 0.00 | 67 | 1016.0 |
| 20260507092503 | 13 | 89 | 1.6 | 6.4 | 0.00 | 0.05 | 0.00 | 66 | 1016.1 |
| 20260507092306 | 13 | 88 | 1.6 | 6.4 | 0.00 | 0.05 | 0.00 | 66 | 1016.0 |
| 20260507092203 | 13 | 85 | 1.6 | 6.4 | 0.00 | 0.05 | 0.00 | 66 | 1016.1 |
| 20260507092103 | 13 | 76 | 1.6 | 6.4 | 0.00 | 0.05 | 0.00 | 67 | 1015.9 |
| 20260507092004 | 13 | 87 | 3.2 | 4.8 | 0.00 | 0.05 | 0.00 | 67 | 1016.0 |
| 20260507091903 | 13 | 88 | 1.6 | 4.8 | 0.00 | 0.05 | 0.00 | 66 | 1015.9 |
| 20260507091804 | 13 | 94 | 1.6 | 4.8 | 0.00 | 0.05 | 0.00 | 66 | 1015.9 |
| 20260507091712 | 13 | 94 | 1.6 | 4.8 | 0.00 | 0.05 | 0.00 | 66 | 1015.9 |
| 20260507091703 | 13 | 95 | 1.6 | 4.8 | 0.00 | 0.05 | 0.00 | 66 | 1015.9 |
| 20260507091603 | 13 | 86 | 1.6 | 6.4 | 0.00 | 0.05 | 0.00 | 66 | 1015.8 |
| 20260507091404 | 13 | 93 | 3.2 | 6.4 | 0.00 | 0.05 | 0.00 | 66 | 1015.9 |
| 20260507091303 | 13 | 90 | 3.2 | 6.4 | 0.00 | 0.05 | 0.00 | 66 | 1015.8 |
| 20260507091215 | 13 | 90 | 3.2 | 6.4 | 0.00 | 0.05 | 0.00 | 66 | 1015.8 |
| 20260507091203 | 13 | 90 | 3.2 | 6.4 | 0.00 | 0.05 | 0.00 | 66 | 1015.9 |
| 20260507091104 | 13 | 81 | 3.2 | 6.4 | 0.00 | 0.05 | 0.00 | 67 | 1015.9 |
| 20260507090903 | 13 | 81 | 1.6 | 6.4 | 0.00 | 0.05 | 0.00 | 67 | 1016.1 |
| 20260507090803 | 13 | 70 | 3.2 | 6.4 | 0.00 | 0.05 | 0.00 | 67 | 1015.8 |
| 20260507090713 | 13 | 70 | 3.2 | 6.4 | 0.00 | 0.05 | 0.00 | 67 | 1015.8 |
| 20260507090703 | 13 | 59 | 3.2 | 6.4 | 0.00 | 0.05 | 0.00 | 67 | 1015.9 |
| 20260507090603 | 13 | 65 | 3.2 | 6.4 | 0.00 | 0.05 | 0.00 | 67 | 1015.9 |
| 20260507090403 | 13 | 61 | 3.2 | 6.4 | 0.00 | 0.05 | 0.00 | 67 | 1015.7 |
| 20260507090313 | 13 | 61 | 3.2 | 6.4 | 0.00 | 0.05 | 0.00 | 67 | 1015.7 |
| 20260507090304 | 13 | 64 | 3.2 | 6.4 | 0.00 | 0.05 | 0.00 | 67 | 1015.6 |
| 20260507090203 | 13 | 55 | 3.2 | 6.4 | 0.00 | 0.05 | 0.00 | 67 | 1015.8 |
| 20260507090005 | 12 | 63 | 3.2 | 6.4 | 0.00 | 0.05 | 0.00 | 66 | 1015.6 |
| 20260507085904 | 12 | 64 | 3.2 | 6.4 | 0.00 | 0.05 | 0.00 | 66 | 1015.7 |
| 20260507085803 | 13 | 79 | 3.2 | 6.4 | 0.00 | 0.05 | 0.00 | 66 | 1015.8 |
| 20260507085703 | 12 | 90 | 1.6 | 6.4 | 0.00 | 0.05 | 0.00 | 66 | 1015.8 |
| 20260507085603 | 13 | 89 | 1.6 | 6.4 | 0.00 | 0.05 | 0.00 | 66 | 1015.8 |
| 20260507085503 | 13 | 88 | 1.6 | 6.4 | 0.00 | 0.05 | 0.00 | 67 | 1015.8 |
| 20260507085403 | 13 | 85 | 1.6 | 6.4 | 0.00 | 0.05 | 0.00 | 67 | 1015.8 |
| 20260507085314 | 13 | 85 | 1.6 | 6.4 | 0.00 | 0.05 | 0.00 | 67 | 1015.8 |
| 20260507085306 | 13 | 81 | 1.6 | 6.4 | 0.00 | 0.05 | 0.00 | 67 | 1015.6 |
| 20260507085203 | 13 | 100 | 1.6 | 6.4 | 0.00 | 0.05 | 0.00 | 67 | 1015.8 |
| 20260507085014 | 13 | 116 | 1.6 | 4.8 | 0.00 | 0.05 | 0.00 | 67 | 1015.8 |
| 20260507085004 | 13 | 119 | 1.6 | 4.8 | 0.00 | 0.05 | 0.00 | 67 | 1015.8 |
| 20260507084904 | 12 | 117 | 1.6 | 4.8 | 0.00 | 0.05 | 0.00 | 67 | 1016.0 |
| 20260507084703 | 12 | 119 | 1.6 | 4.8 | 0.00 | 0.05 | 0.00 | 67 | 1015.9 |
| 20260507084614 | 12 | 119 | 1.6 | 4.8 | 0.00 | 0.05 | 0.00 | 67 | 1015.9 |
| 20260507084603 | 12 | 121 | 1.6 | 4.8 | 0.00 | 0.05 | 0.00 | 67 | 1015.7 |
| 20260507084503 | 12 | 126 | 1.6 | 6.4 | 0.00 | 0.05 | 0.00 | 67 | 1015.7 |
| 20260507084315 | 12 | 126 | 1.6 | 6.4 | 0.00 | 0.05 | 0.00 | 67 | 1015.7 |
| 20260507084303 | 12 | 134 | 1.6 | 6.4 | 0.00 | 0.05 | 0.00 | 67 | 1015.7 |
| 20260507084203 | 12 | 128 | 1.6 | 6.4 | 0.00 | 0.05 | 0.00 | 67 | 1015.8 |
| 20260507084004 | 12 | 125 | 1.6 | 6.4 | 0.00 | 0.05 | 0.00 | 67 | 1015.9 |
| 20260507083914 | 12 | 125 | 1.6 | 6.4 | 0.00 | 0.05 | 0.00 | 67 | 1015.9 |
| 20260507083904 | 12 | 126 | 1.6 | 6.4 | 0.00 | 0.05 | 0.00 | 66 | 1015.8 |
| 20260507083804 | 12 | 126 | 1.6 | 6.4 | 0.00 | 0.05 | 0.00 | 67 | 1015.8 |
| 20260507083716 | 12 | 126 | 1.6 | 6.4 | 0.00 | 0.05 | 0.00 | 67 | 1015.8 |
| 20260507083604 | 12 | 118 | 1.6 | 6.4 | 0.00 | 0.05 | 0.00 | 67 | 1015.7 |
| 20260507083403 | 12 | 113 | 1.6 | 6.4 | 0.00 | 0.05 | 0.00 | 68 | 1015.8 |
| 20260507083303 | 12 | 102 | 1.6 | 6.4 | 0.00 | 0.05 | 0.00 | 68 | 1015.7 |
| 20260507083204 | 12 | 106 | 1.6 | 6.4 | 0.00 | 0.05 | 0.00 | 68 | 1015.6 |
| 20260507083103 | 12 | 109 | 1.6 | 6.4 | 0.00 | 0.05 | 0.00 | 68 | 1015.7 |
| 20260507083004 | 12 | 104 | 1.6 | 6.4 | 0.00 | 0.05 | 0.00 | 68 | 1015.7 |
| 20260507082903 | 12 | 102 | 1.6 | 6.4 | 0.00 | 0.05 | 0.00 | 68 | 1015.6 |
| 20260507082803 | 12 | 98 | 1.6 | 6.4 | 0.00 | 0.05 | 0.00 | 69 | 1015.5 |
| 20260507082712 | 12 | 98 | 1.6 | 6.4 | 0.00 | 0.05 | 0.00 | 69 | 1015.5 |
| 20260507082703 | 12 | 85 | 1.6 | 6.4 | 0.00 | 0.05 | 0.00 | 69 | 1015.6 |
| 20260507082603 | 12 | 87 | 1.6 | 6.4 | 0.00 | 0.05 | 0.00 | 68 | 1015.8 |
| 20260507082403 | 12 | 83 | 1.6 | 6.4 | 0.00 | 0.05 | 0.00 | 68 | 1015.9 |
| 20260507082306 | 12 | 93 | 1.6 | 6.4 | 0.00 | 0.05 | 0.00 | 67 | 1015.6 |
| 20260507082203 | 12 | 88 | 1.6 | 6.4 | 0.00 | 0.05 | 0.00 | 68 | 1015.8 |
| 20260507082104 | 12 | 87 | 3.2 | 6.4 | 0.00 | 0.05 | 0.00 | 68 | 1015.7 |
| 20260507082003 | 12 | 92 | 1.6 | 6.4 | 0.00 | 0.05 | 0.00 | 68 | 1015.8 |
| 20260507081903 | 12 | 93 | 3.2 | 6.4 | 0.00 | 0.05 | 0.00 | 69 | 1015.7 |
| 20260507081803 | 12 | 95 | 3.2 | 6.4 | 0.00 | 0.05 | 0.00 | 69 | 1015.6 |
| 20260507081703 | 12 | 100 | 3.2 | 6.4 | 0.00 | 0.05 | 0.00 | 69 | 1015.8 |
| 20260507081604 | 12 | 103 | 3.2 | 6.4 | 0.00 | 0.05 | 0.00 | 69 | 1015.8 |
| 20260507081503 | 12 | 109 | 3.2 | 6.4 | 0.00 | 0.05 | 0.00 | 69 | 1015.8 |
| 20260507081403 | 12 | 108 | 3.2 | 6.4 | 0.00 | 0.05 | 0.00 | 69 | 1015.5 |
| 20260507081304 | 12 | 104 | 3.2 | 6.4 | 0.00 | 0.05 | 0.00 | 69 | 1015.5 |
| 20260507081216 | 12 | 104 | 3.2 | 6.4 | 0.00 | 0.05 | 0.00 | 69 | 1015.5 |
| 20260507081203 | 12 | 105 | 1.6 | 6.4 | 0.00 | 0.05 | 0.00 | 69 | 1015.7 |
| 20260507081103 | 12 | 103 | 1.6 | 6.4 | 0.00 | 0.05 | 0.00 | 69 | 1015.5 |
| 20260507080903 | 12 | 100 | 1.6 | 4.8 | 0.00 | 0.05 | 0.00 | 69 | 1015.6 |
| 20260507080803 | 12 | 94 | 1.6 | 4.8 | 0.00 | 0.05 | 0.00 | 69 | 1015.7 |
| 20260507080703 | 12 | 90 | 1.6 | 4.8 | 0.00 | 0.05 | 0.00 | 69 | 1015.6 |
| 20260507080604 | 12 | 94 | 1.6 | 4.8 | 0.00 | 0.05 | 0.00 | 70 | 1015.6 |
| 20260507080503 | 12 | 80 | 1.6 | 6.4 | 0.00 | 0.05 | 0.00 | 70 | 1015.6 |
| 20260507080403 | 12 | 63 | 1.6 | 6.4 | 0.00 | 0.05 | 0.00 | 70 | 1015.6 |
| 20260507080303 | 12 | 58 | 1.6 | 6.4 | 0.00 | 0.05 | 0.00 | 70 | 1015.7 |
| 20260507080203 | 12 | 61 | 1.6 | 6.4 | 0.00 | 0.05 | 0.00 | 70 | 1015.6 |
| 20260507080116 | 12 | 61 | 1.6 | 6.4 | 0.00 | 0.05 | 0.00 | 70 | 1015.6 |
| 20260507080104 | 12 | 63 | 1.6 | 6.4 | 0.00 | 0.05 | 0.00 | 70 | 1015.6 |
| 20260507080003 | 12 | 63 | 1.6 | 6.4 | 0.00 | 0.05 | 0.00 | 71 | 1015.5 |
| 20260507075803 | 12 | 71 | 1.6 | 6.4 | 0.00 | 0.05 | 0.00 | 71 | 1015.6 |
| 20260507075703 | 12 | 82 | 1.6 | 6.4 | 0.00 | 0.05 | 0.00 | 71 | 1015.6 |
| 20260507075603 | 12 | 82 | 1.6 | 6.4 | 0.00 | 0.05 | 0.00 | 70 | 1015.6 |
| 20260507075503 | 12 | 96 | 1.6 | 6.4 | 0.00 | 0.05 | 0.00 | 70 | 1015.5 |
| 20260507075403 | 12 | 108 | 1.6 | 6.4 | 0.00 | 0.05 | 0.00 | 71 | 1015.6 |
| 20260507075306 | 12 | 118 | 1.6 | 4.8 | 0.00 | 0.05 | 0.00 | 71 | 1015.6 |
| 20260507075213 | 12 | 118 | 1.6 | 4.8 | 0.00 | 0.05 | 0.00 | 71 | 1015.6 |
| 20260507075204 | 12 | 113 | 1.6 | 4.8 | 0.00 | 0.05 | 0.00 | 71 | 1015.6 |
| 20260507075104 | 12 | 112 | 1.6 | 4.8 | 0.00 | 0.05 | 0.00 | 71 | 1015.6 |
| 20260507074903 | 12 | 111 | 1.6 | 4.8 | 0.00 | 0.05 | 0.00 | 71 | 1015.5 |
| 20260507074803 | 12 | 112 | 1.6 | 4.8 | 0.00 | 0.05 | 0.00 | 71 | 1015.5 |
| 20260507074703 | 11 | 111 | 1.6 | 4.8 | 0.00 | 0.05 | 0.00 | 71 | 1015.7 |
| 20260507074615 | 11 | 111 | 1.6 | 4.8 | 0.00 | 0.05 | 0.00 | 71 | 1015.7 |
| 20260507074603 | 11 | 112 | 1.6 | 4.8 | 0.00 | 0.05 | 0.00 | 71 | 1015.5 |
| 20260507074503 | 11 | 120 | 1.6 | 6.4 | 0.00 | 0.05 | 0.00 | 71 | 1015.6 |
| 20260507074303 | 11 | 118 | 1.6 | 6.4 | 0.00 | 0.05 | 0.00 | 71 | 1015.4 |
| 20260507074214 | 11 | 118 | 1.6 | 6.4 | 0.00 | 0.05 | 0.00 | 71 | 1015.4 |
| 20260507074203 | 11 | 122 | 1.6 | 6.4 | 0.00 | 0.05 | 0.00 | 71 | 1015.4 |
| 20260507074104 | 11 | 120 | 1.6 | 6.4 | 0.00 | 0.05 | 0.00 | 71 | 1015.4 |
| 20260507073904 | 11 | 109 | 1.6 | 6.4 | 0.00 | 0.05 | 0.00 | 71 | 1015.5 |
| 20260507073803 | 11 | 98 | 1.6 | 6.4 | 0.00 | 0.05 | 0.00 | 71 | 1015.6 |
| 20260507073703 | 11 | 99 | 1.6 | 6.4 | 0.00 | 0.05 | 0.00 | 71 | 1015.4 |
| 20260507073603 | 11 | 100 | 1.6 | 6.4 | 0.00 | 0.05 | 0.00 | 71 | 1015.6 |
| 20260507073504 | 11 | 101 | 1.6 | 6.4 | 0.00 | 0.05 | 0.00 | 71 | 1015.6 |
| 20260507073404 | 11 | 89 | 1.6 | 6.4 | 0.00 | 0.05 | 0.00 | 71 | 1015.4 |
| 20260507073303 | 11 | 85 | 1.6 | 6.4 | 0.00 | 0.05 | 0.00 | 71 | 1015.5 |
| 20260507073204 | 11 | 80 | 1.6 | 6.4 | 0.00 | 0.05 | 0.00 | 71 | 1015.4 |
| 20260507073104 | 11 | 77 | 1.6 | 6.4 | 0.00 | 0.05 | 0.00 | 71 | 1015.2 |
| 20260507073004 | 11 | 87 | 1.6 | 6.4 | 0.00 | 0.05 | 0.00 | 72 | 1015.6 |
| 20260507072903 | 11 | 89 | 1.6 | 6.4 | 0.00 | 0.05 | 0.00 | 72 | 1015.5 |
| 20260507072803 | 11 | 101 | 1.6 | 3.2 | 0.00 | 0.05 | 0.00 | 72 | 1015.6 |
| 20260507072703 | 11 | 106 | 1.6 | 3.2 | 0.00 | 0.05 | 0.00 | 72 | 1015.5 |
| 20260507072603 | 11 | 104 | 1.6 | 3.2 | 0.00 | 0.05 | 0.00 | 71 | 1015.4 |
| 20260507072504 | 11 | 105 | 1.6 | 4.8 | 0.00 | 0.05 | 0.00 | 71 | 1015.6 |
| 20260507072403 | 11 | 104 | 1.6 | 4.8 | 0.00 | 0.05 | 0.00 | 71 | 1015.4 |
| 20260507072306 | 11 | 103 | 1.6 | 4.8 | 0.00 | 0.05 | 0.00 | 71 | 1015.2 |
| 20260507072203 | 11 | 101 | 1.6 | 4.8 | 0.00 | 0.05 | 0.00 | 72 | 1015.4 |
| 20260507072104 | 11 | 106 | 1.6 | 4.8 | 0.00 | 0.05 | 0.00 | 72 | 1015.3 |
| 20260507072013 | 11 | 106 | 1.6 | 4.8 | 0.00 | 0.05 | 0.00 | 72 | 1015.3 |
| 20260507072003 | 11 | 105 | 1.6 | 4.8 | 0.00 | 0.05 | 0.00 | 72 | 1015.5 |
| 20260507071904 | 11 | 106 | 1.6 | 4.8 | 0.00 | 0.05 | 0.00 | 72 | 1015.5 |
| 20260507071815 | 11 | 106 | 1.6 | 4.8 | 0.00 | 0.05 | 0.00 | 72 | 1015.5 |
| 20260507071704 | 11 | 107 | 1.6 | 4.8 | 0.00 | 0.05 | 0.00 | 71 | 1015.3 |
| 20260507071504 | 11 | 109 | 1.6 | 4.8 | 0.00 | 0.05 | 0.00 | 72 | 1015.3 |
| 20260507071403 | 11 | 108 | 1.6 | 4.8 | 0.00 | 0.05 | 0.00 | 72 | 1015.4 |
| 20260507071303 | 11 | 111 | 1.6 | 4.8 | 0.00 | 0.05 | 0.00 | 72 | 1015.3 |
| 20260507071204 | 11 | 114 | 1.6 | 4.8 | 0.00 | 0.05 | 0.00 | 72 | 1015.3 |
| 20260507071103 | 11 | 115 | 1.6 | 4.8 | 0.00 | 0.05 | 0.00 | 72 | 1015.2 |
| 20260507071003 | 11 | 115 | 1.6 | 4.8 | 0.00 | 0.05 | 0.00 | 72 | 1015.1 |
| 20260507070904 | 11 | 113 | 1.6 | 4.8 | 0.00 | 0.05 | 0.00 | 72 | 1015.3 |
| 20260507070816 | 11 | 113 | 1.6 | 4.8 | 0.00 | 0.05 | 0.00 | 72 | 1015.3 |
| 20260507070804 | 11 | 107 | 1.6 | 4.8 | 0.00 | 0.05 | 0.00 | 72 | 1015.2 |
| 20260507070704 | 11 | 105 | 1.6 | 4.8 | 0.00 | 0.05 | 0.00 | 72 | 1015.4 |
| 20260507070613 | 11 | 105 | 1.6 | 4.8 | 0.00 | 0.05 | 0.00 | 72 | 1015.4 |
| 20260507070503 | 11 | 99 | 1.6 | 4.8 | 0.00 | 0.05 | 0.00 | 72 | 1015.1 |
| 20260507070303 | 11 | 105 | 1.6 | 4.8 | 0.00 | 0.05 | 0.00 | 72 | 1015.2 |
| 20260507070204 | 11 | 107 | 1.6 | 4.8 | 0.00 | 0.05 | 0.00 | 72 | 1015.5 |
| 20260507070104 | 11 | 108 | 0.0 | 4.8 | 0.00 | 0.05 | 0.00 | 73 | 1015.1 |
| 20260507070008 | 11 | 109 | 0.0 | 4.8 | 0.00 | 0.05 | 0.00 | 73 | 1015.3 |
| 20260507065903 | 11 | 105 | 1.6 | 4.8 | 0.00 | 0.05 | 0.00 | 72 | 1015.2 |
| 20260507065803 | 11 | 110 | 1.6 | 4.8 | 0.00 | 0.05 | 0.00 | 73 | 1015.5 |
| 20260507065703 | 11 | 115 | 1.6 | 4.8 | 0.00 | 0.05 | 0.00 | 73 | 1015.5 |
| 20260507065604 | 11 | 119 | 1.6 | 4.8 | 0.00 | 0.05 | 0.00 | 73 | 1015.2 |
| 20260507065503 | 11 | 121 | 1.6 | 4.8 | 0.00 | 0.05 | 0.00 | 73 | 1015.2 |
| 20260507065416 | 11 | 121 | 1.6 | 4.8 | 0.00 | 0.05 | 0.00 | 73 | 1015.2 |
| 20260507065403 | 11 | 122 | 1.6 | 4.8 | 0.00 | 0.05 | 0.00 | 73 | 1015.1 |
| 20260507065305 | 11 | 121 | 1.6 | 4.8 | 0.00 | 0.05 | 0.00 | 73 | 1015.3 |
| 20260507065103 | 11 | 112 | 1.6 | 4.8 | 0.00 | 0.05 | 0.00 | 73 | 1015.3 |
| 20260507065003 | 11 | 110 | 1.6 | 4.8 | 0.00 | 0.05 | 0.00 | 73 | 1015.3 |
| 20260507064904 | 11 | 112 | 1.6 | 4.8 | 0.00 | 0.05 | 0.00 | 73 | 1015.2 |
| 20260507064813 | 11 | 112 | 1.6 | 4.8 | 0.00 | 0.05 | 0.00 | 73 | 1015.2 |
| 20260507064803 | 11 | 111 | 1.6 | 4.8 | 0.00 | 0.05 | 0.00 | 73 | 1015.2 |
| 20260507064704 | 11 | 110 | 0.0 | 4.8 | 0.00 | 0.05 | 0.00 | 73 | 1015.2 |
| 20260507064503 | 11 | 113 | 0.0 | 4.8 | 0.00 | 0.05 | 0.00 | 73 | 1015.2 |
| 20260507064403 | 11 | 114 | 1.6 | 4.8 | 0.00 | 0.05 | 0.00 | 73 | 1015.1 |
| 20260507064303 | 11 | 114 | 1.6 | 4.8 | 0.00 | 0.05 | 0.00 | 74 | 1015.2 |
| 20260507064203 | 11 | 114 | 1.6 | 4.8 | 0.00 | 0.05 | 0.00 | 74 | 1015.1 |
| 20260507064104 | 11 | 114 | 1.6 | 3.2 | 0.00 | 0.05 | 0.00 | 74 | 1015.2 |
| 20260507064003 | 11 | 116 | 1.6 | 3.2 | 0.00 | 0.05 | 0.00 | 74 | 1015.2 |
| 20260507063903 | 11 | 121 | 1.6 | 3.2 | 0.00 | 0.05 | 0.00 | 74 | 1015.1 |
| 20260507063814 | 11 | 121 | 1.6 | 3.2 | 0.00 | 0.05 | 0.00 | 74 | 1015.1 |
| 20260507063804 | 11 | 120 | 1.6 | 3.2 | 0.00 | 0.05 | 0.00 | 74 | 1015.1 |
| 20260507063704 | 11 | 118 | 1.6 | 3.2 | 0.00 | 0.05 | 0.00 | 74 | 1015.2 |
| 20260507063515 | 11 | 115 | 1.6 | 3.2 | 0.00 | 0.05 | 0.00 | 74 | 1015.0 |
| 20260507063503 | 11 | 112 | 1.6 | 3.2 | 0.00 | 0.05 | 0.00 | 74 | 1015.2 |
| 20260507063403 | 11 | 111 | 1.6 | 3.2 | 0.00 | 0.05 | 0.00 | 74 | 1015.4 |
| 20260507063203 | 11 | 115 | 1.6 | 3.2 | 0.00 | 0.05 | 0.00 | 74 | 1015.1 |
| 20260507063103 | 11 | 116 | 1.6 | 3.2 | 0.00 | 0.05 | 0.00 | 74 | 1015.2 |
| 20260507063004 | 11 | 119 | 1.6 | 3.2 | 0.00 | 0.05 | 0.00 | 74 | 1015.1 |
| 20260507062916 | 11 | 119 | 1.6 | 3.2 | 0.00 | 0.05 | 0.00 | 74 | 1015.1 |
| 20260507062903 | 11 | 117 | 1.6 | 3.2 | 0.00 | 0.05 | 0.00 | 74 | 1015.1 |
| 20260507062803 | 11 | 111 | 1.6 | 3.2 | 0.00 | 0.05 | 0.00 | 74 | 1015.1 |
| 20260507062617 | 11 | 112 | 1.6 | 3.2 | 0.00 | 0.05 | 0.00 | 74 | 1015.1 |
| 20260507062604 | 11 | 115 | 1.6 | 3.2 | 0.00 | 0.05 | 0.00 | 74 | 1015.3 |
| 20260507062503 | 11 | 119 | 1.6 | 4.8 | 0.00 | 0.05 | 0.00 | 74 | 1015.1 |
| 20260507062306 | 11 | 124 | 1.6 | 4.8 | 0.00 | 0.05 | 0.00 | 74 | 1015.1 |
| 20260507062203 | 11 | 121 | 1.6 | 4.8 | 0.00 | 0.05 | 0.00 | 74 | 1015.2 |
| 20260507062103 | 11 | 117 | 1.6 | 4.8 | 0.00 | 0.05 | 0.00 | 74 | 1015.0 |
| 20260507062003 | 11 | 119 | 1.6 | 4.8 | 0.00 | 0.05 | 0.00 | 74 | 1015.1 |
| 20260507061903 | 11 | 119 | 1.6 | 4.8 | 0.00 | 0.05 | 0.00 | 74 | 1015.0 |
| 20260507061816 | 11 | 119 | 1.6 | 4.8 | 0.00 | 0.05 | 0.00 | 74 | 1015.0 |
| 20260507061803 | 11 | 125 | 1.6 | 4.8 | 0.00 | 0.05 | 0.00 | 75 | 1015.1 |
| 20260507061703 | 11 | 127 | 1.6 | 4.8 | 0.00 | 0.05 | 0.00 | 75 | 1015.2 |
| 20260507061503 | 11 | 127 | 1.6 | 4.8 | 0.00 | 0.05 | 0.00 | 74 | 1015.0 |
| 20260507061403 | 10 | 124 | 1.6 | 4.8 | 0.00 | 0.05 | 0.00 | 75 | 1015.2 |
| 20260507061303 | 11 | 118 | 1.6 | 4.8 | 0.00 | 0.05 | 0.00 | 75 | 1015.0 |
| 20260507061212 | 11 | 118 | 1.6 | 4.8 | 0.00 | 0.05 | 0.00 | 75 | 1015.0 |
| 20260507061203 | 10 | 121 | 1.6 | 4.8 | 0.00 | 0.05 | 0.00 | 75 | 1015.2 |
| 20260507061103 | 10 | 126 | 0.0 | 4.8 | 0.00 | 0.05 | 0.00 | 75 | 1015.1 |
| 20260507060903 | 10 | 126 | 0.0 | 4.8 | 0.00 | 0.05 | 0.00 | 75 | 1014.8 |
| 20260507060804 | 10 | 125 | 0.0 | 4.8 | 0.00 | 0.05 | 0.00 | 75 | 1015.1 |
| 20260507060703 | 10 | 121 | 0.0 | 4.8 | 0.00 | 0.05 | 0.00 | 75 | 1014.9 |
| 20260507060603 | 10 | 119 | 0.0 | 4.8 | 0.00 | 0.05 | 0.00 | 74 | 1014.9 |
| 20260507060518 | 10 | 119 | 0.0 | 4.8 | 0.00 | 0.05 | 0.00 | 74 | 1014.9 |
| 20260507060504 | 10 | 115 | 0.0 | 4.8 | 0.00 | 0.05 | 0.00 | 75 | 1015.1 |
| 20260507060404 | 10 | 109 | 0.0 | 4.8 | 0.00 | 0.05 | 0.00 | 75 | 1015.0 |
| 20260507060315 | 10 | 109 | 0.0 | 4.8 | 0.00 | 0.05 | 0.00 | 75 | 1015.0 |
| 20260507060213 | 10 | 108 | 0.0 | 4.8 | 0.00 | 0.05 | 0.00 | 75 | 1014.9 |
| 20260507060204 | 10 | 107 | 0.0 | 3.2 | 0.00 | 0.05 | 0.00 | 75 | 1015.0 |
| 20260507055903 | 10 | 112 | 0.0 | 3.2 | 0.00 | 0.05 | 0.00 | 75 | 1014.9 |
| 20260507055804 | 10 | 113 | 0.0 | 3.2 | 0.00 | 0.05 | 0.00 | 75 | 1014.9 |
| 20260507055703 | 10 | 116 | 0.0 | 3.2 | 0.00 | 0.05 | 0.00 | 75 | 1014.9 |
| 20260507055603 | 10 | 118 | 0.0 | 3.2 | 0.00 | 0.05 | 0.00 | 75 | 1014.7 |
| 20260507055503 | 10 | 121 | 1.6 | 3.2 | 0.00 | 0.05 | 0.00 | 75 | 1014.8 |
| 20260507055403 | 10 | 126 | 0.0 | 3.2 | 0.00 | 0.05 | 0.00 | 75 | 1014.9 |
| 20260507055305 | 10 | 125 | 0.0 | 3.2 | 0.00 | 0.05 | 0.00 | 75 | 1014.8 |
| 20260507055203 | 10 | 124 | 0.0 | 3.2 | 0.00 | 0.05 | 0.00 | 75 | 1014.8 |
| 20260507055104 | 10 | 122 | 0.0 | 3.2 | 0.00 | 0.05 | 0.00 | 75 | 1014.8 |
| 20260507055003 | 10 | 122 | 0.0 | 3.2 | 0.00 | 0.05 | 0.00 | 75 | 1014.7 |
| 20260507054903 | 10 | 121 | 0.0 | 3.2 | 0.00 | 0.05 | 0.00 | 75 | 1014.8 |
| 20260507054803 | 10 | 121 | 0.0 | 3.2 | 0.00 | 0.05 | 0.00 | 75 | 1014.8 |
| 20260507054703 | 10 | 119 | 0.0 | 3.2 | 0.00 | 0.05 | 0.00 | 75 | 1014.9 |
| 20260507054616 | 10 | 119 | 0.0 | 3.2 | 0.00 | 0.05 | 0.00 | 75 | 1014.9 |
| 20260507054603 | 10 | 119 | 1.6 | 3.2 | 0.00 | 0.05 | 0.00 | 75 | 1014.8 |
| 20260507054503 | 10 | 120 | 1.6 | 3.2 | 0.00 | 0.05 | 0.00 | 75 | 1014.7 |
| 20260507054413 | 10 | 120 | 1.6 | 3.2 | 0.00 | 0.05 | 0.00 | 75 | 1014.7 |
| 20260507054304 | 10 | 120 | 1.6 | 3.2 | 0.00 | 0.05 | 0.00 | 75 | 1014.8 |
| 20260507054215 | 10 | 120 | 1.6 | 3.2 | 0.00 | 0.05 | 0.00 | 75 | 1014.8 |
| 20260507054103 | 10 | 119 | 1.6 | 3.2 | 0.00 | 0.05 | 0.00 | 75 | 1014.7 |
| 20260507053903 | 10 | 117 | 1.6 | 3.2 | 0.00 | 0.05 | 0.00 | 75 | 1014.9 |
| 20260507053803 | 10 | 115 | 1.6 | 3.2 | 0.00 | 0.05 | 0.00 | 75 | 1014.9 |
| 20260507053703 | 10 | 112 | 1.6 | 9.7 | 0.00 | 0.05 | 0.00 | 75 | 1014.7 |
| 20260507053617 | 10 | 112 | 1.6 | 9.7 | 0.00 | 0.05 | 0.00 | 75 | 1014.7 |
| 20260507053603 | 10 | 104 | 1.6 | 9.7 | 0.00 | 0.05 | 0.00 | 75 | 1014.7 |
| 20260507053503 | 10 | 106 | 1.6 | 9.7 | 0.00 | 0.05 | 0.00 | 75 | 1014.6 |
| 20260507053304 | 10 | 108 | 1.6 | 9.7 | 0.00 | 0.05 | 0.00 | 76 | 1014.7 |
| 20260507053203 | 10 | 108 | 1.6 | 9.7 | 0.00 | 0.05 | 0.00 | 76 | 1014.7 |
| 20260507053115 | 10 | 108 | 1.6 | 9.7 | 0.00 | 0.05 | 0.00 | 76 | 1014.7 |
| 20260507053104 | 10 | 108 | 1.6 | 9.7 | 0.00 | 0.05 | 0.00 | 76 | 1014.6 |
| 20260507053003 | 10 | 109 | 1.6 | 9.7 | 0.00 | 0.05 | 0.00 | 76 | 1014.7 |
| 20260507052803 | 10 | 112 | 1.6 | 9.7 | 0.00 | 0.05 | 0.00 | 76 | 1014.8 |
| 20260507052704 | 10 | 115 | 1.6 | 9.7 | 0.00 | 0.05 | 0.00 | 76 | 1014.7 |
| 20260507052612 | 10 | 115 | 1.6 | 9.7 | 0.00 | 0.05 | 0.00 | 76 | 1014.7 |
| 20260507052604 | 10 | 122 | 1.6 | 9.7 | 0.00 | 0.05 | 0.00 | 76 | 1014.9 |
| 20260507052503 | 10 | 124 | 1.6 | 4.8 | 0.00 | 0.05 | 0.00 | 76 | 1014.8 |
| 20260507052306 | 10 | 121 | 1.6 | 4.8 | 0.00 | 0.05 | 0.00 | 76 | 1014.8 |
| 20260507052204 | 10 | 123 | 1.6 | 4.8 | 0.00 | 0.05 | 0.00 | 76 | 1014.7 |
| 20260507052103 | 10 | 125 | 1.6 | 4.8 | 0.00 | 0.05 | 0.00 | 76 | 1014.7 |
| 20260507052003 | 10 | 127 | 0.0 | 4.8 | 0.00 | 0.05 | 0.00 | 76 | 1014.7 |
| 20260507051903 | 10 | 126 | 0.0 | 4.8 | 0.00 | 0.05 | 0.00 | 76 | 1014.6 |
| 20260507051803 | 10 | 125 | 0.0 | 4.8 | 0.00 | 0.05 | 0.00 | 76 | 1014.6 |
| 20260507051703 | 10 | 123 | 0.0 | 4.8 | 0.00 | 0.05 | 0.00 | 76 | 1014.5 |
| 20260507051603 | 10 | 120 | 0.0 | 4.8 | 0.00 | 0.05 | 0.00 | 76 | 1014.6 |
| 20260507051503 | 10 | 120 | 0.0 | 4.8 | 0.00 | 0.05 | 0.00 | 76 | 1014.6 |
| 20260507051403 | 10 | 116 | 0.0 | 4.8 | 0.00 | 0.05 | 0.00 | 76 | 1014.8 |
| 20260507051314 | 10 | 115 | 0.0 | 3.2 | 0.00 | 0.05 | 0.00 | 76 | 1014.8 |
| 20260507051203 | 10 | 112 | 0.0 | 3.2 | 0.00 | 0.05 | 0.00 | 76 | 1014.8 |
| 20260507051003 | 10 | 103 | 0.0 | 3.2 | 0.00 | 0.05 | 0.00 | 77 | 1014.7 |
| 20260507050903 | 10 | 102 | 0.0 | 4.8 | 0.00 | 0.05 | 0.00 | 77 | 1014.6 |
| 20260507050803 | 10 | 101 | 0.0 | 4.8 | 0.00 | 0.05 | 0.00 | 77 | 1014.7 |
| 20260507050703 | 10 | 96 | 0.0 | 4.8 | 0.00 | 0.05 | 0.00 | 77 | 1014.7 |
| 20260507050603 | 10 | 97 | 0.0 | 4.8 | 0.00 | 0.05 | 0.00 | 77 | 1014.6 |
| 20260507050503 | 10 | 96 | 0.0 | 4.8 | 0.00 | 0.05 | 0.00 | 77 | 1014.5 |
| 20260507050403 | 10 | 95 | 0.0 | 4.8 | 0.00 | 0.05 | 0.00 | 78 | 1014.8 |
| 20260507050315 | 10 | 95 | 0.0 | 4.8 | 0.00 | 0.05 | 0.00 | 78 | 1014.8 |
| 20260507050303 | 10 | 96 | 0.0 | 4.8 | 0.00 | 0.05 | 0.00 | 78 | 1014.7 |
| 20260507050203 | 10 | 98 | 0.0 | 4.8 | 0.00 | 0.05 | 0.00 | 78 | 1014.5 |
| 20260507050004 | 10 | 104 | 0.0 | 4.8 | 0.00 | 0.05 | 0.00 | 78 | 1014.6 |
| 20260507045903 | 10 | 103 | 0.0 | 4.8 | 0.00 | 0.05 | 0.00 | 78 | 1014.5 |
| 20260507045803 | 10 | 106 | 0.0 | 4.8 | 0.00 | 0.05 | 0.00 | 78 | 1014.4 |
| 20260507045704 | 10 | 112 | 0.0 | 3.2 | 0.00 | 0.05 | 0.00 | 78 | 1014.6 |
| 20260507045615 | 10 | 112 | 0.0 | 3.2 | 0.00 | 0.05 | 0.00 | 78 | 1014.6 |
| 20260507045604 | 10 | 112 | 0.0 | 3.2 | 0.00 | 0.05 | 0.00 | 78 | 1014.6 |
| 20260507045503 | 10 | 111 | 0.0 | 3.2 | 0.00 | 0.05 | 0.00 | 78 | 1014.5 |
| 20260507045306 | 10 | 111 | 0.0 | 3.2 | 0.00 | 0.05 | 0.00 | 78 | 1014.6 |
| 20260507045203 | 10 | 111 | 0.0 | 3.2 | 0.00 | 0.05 | 0.00 | 78 | 1014.6 |
| 20260507045103 | 10 | 112 | 0.0 | 3.2 | 0.00 | 0.05 | 0.00 | 78 | 1014.5 |
| 20260507045003 | 10 | 112 | 0.0 | 3.2 | 0.00 | 0.05 | 0.00 | 78 | 1014.6 |
| 20260507044916 | 10 | 112 | 0.0 | 3.2 | 0.00 | 0.05 | 0.00 | 78 | 1014.6 |
| 20260507044903 | 10 | 113 | 1.6 | 3.2 | 0.00 | 0.05 | 0.00 | 78 | 1014.5 |
| 20260507044804 | 10 | 110 | 1.6 | 3.2 | 0.00 | 0.05 | 0.00 | 78 | 1014.4 |
| 20260507044603 | 10 | 106 | 0.0 | 3.2 | 0.00 | 0.05 | 0.00 | 79 | 1014.4 |
| 20260507044503 | 10 | 104 | 0.0 | 3.2 | 0.00 | 0.05 | 0.00 | 79 | 1014.5 |
| 20260507044403 | 10 | 103 | 1.6 | 3.2 | 0.00 | 0.05 | 0.00 | 79 | 1014.6 |
| 20260507044303 | 10 | 103 | 1.6 | 3.2 | 0.00 | 0.05 | 0.00 | 79 | 1014.6 |
| 20260507044204 | 10 | 101 | 1.6 | 3.2 | 0.00 | 0.05 | 0.00 | 79 | 1014.6 |
| 20260507044114 | 10 | 101 | 1.6 | 3.2 | 0.00 | 0.05 | 0.00 | 79 | 1014.6 |
| 20260507044103 | 10 | 102 | 0.0 | 3.2 | 0.00 | 0.05 | 0.00 | 79 | 1014.5 |
| 20260507044004 | 10 | 103 | 0.0 | 4.8 | 0.00 | 0.05 | 0.00 | 79 | 1014.4 |
| 20260507043803 | 10 | 108 | 0.0 | 4.8 | 0.00 | 0.05 | 0.00 | 79 | 1014.6 |
| 20260507043703 | 10 | 108 | 0.0 | 4.8 | 0.00 | 0.05 | 0.00 | 79 | 1014.3 |
| 20260507043603 | 10 | 110 | 0.0 | 4.8 | 0.00 | 0.05 | 0.00 | 79 | 1014.3 |
| 20260507043503 | 10 | 113 | 0.0 | 4.8 | 0.00 | 0.05 | 0.00 | 79 | 1014.5 |
| 20260507043404 | 10 | 114 | 0.0 | 4.8 | 0.00 | 0.05 | 0.00 | 79 | 1014.3 |
| 20260507043304 | 10 | 114 | 0.0 | 4.8 | 0.00 | 0.05 | 0.00 | 79 | 1014.4 |
| 20260507043217 | 10 | 114 | 0.0 | 4.8 | 0.00 | 0.05 | 0.00 | 79 | 1014.4 |
| 20260507043203 | 10 | 114 | 0.0 | 4.8 | 0.00 | 0.05 | 0.00 | 79 | 1014.4 |
| 20260507043103 | 10 | 110 | 0.0 | 4.8 | 0.00 | 0.05 | 0.00 | 79 | 1014.4 |
| 20260507042904 | 10 | 103 | 0.0 | 3.2 | 0.00 | 0.05 | 0.00 | 79 | 1014.4 |
| 20260507042816 | 10 | 103 | 0.0 | 3.2 | 0.00 | 0.05 | 0.00 | 79 | 1014.4 |
| 20260507042803 | 10 | 100 | 0.0 | 3.2 | 0.00 | 0.05 | 0.00 | 79 | 1014.3 |
| 20260507042704 | 10 | 100 | 1.6 | 3.2 | 0.00 | 0.05 | 0.00 | 79 | 1014.4 |
| 20260507042503 | 10 | 97 | 1.6 | 3.2 | 0.00 | 0.05 | 0.00 | 79 | 1014.4 |
| 20260507042403 | 10 | 93 | 0.0 | 3.2 | 0.00 | 0.05 | 0.00 | 79 | 1014.3 |
| 20260507042306 | 10 | 88 | 1.6 | 3.2 | 0.00 | 0.05 | 0.00 | 80 | 1014.4 |
| 20260507042203 | 10 | 85 | 1.6 | 3.2 | 0.00 | 0.05 | 0.00 | 80 | 1014.5 |
| 20260507042103 | 10 | 78 | 0.0 | 4.8 | 0.00 | 0.05 | 0.00 | 80 | 1014.3 |
| 20260507042004 | 10 | 80 | 1.6 | 4.8 | 0.00 | 0.05 | 0.00 | 80 | 1014.2 |
| 20260507041904 | 10 | 66 | 0.0 | 4.8 | 0.00 | 0.05 | 0.00 | 80 | 1014.2 |
| 20260507041804 | 10 | 65 | 0.0 | 4.8 | 0.00 | 0.05 | 0.00 | 80 | 1014.3 |
| 20260507041716 | 10 | 65 | 0.0 | 4.8 | 0.00 | 0.05 | 0.00 | 80 | 1014.3 |
| 20260507041703 | 10 | 70 | 0.0 | 4.8 | 0.00 | 0.05 | 0.00 | 80 | 1014.4 |
| 20260507041603 | 10 | 73 | 0.0 | 4.8 | 0.00 | 0.05 | 0.00 | 80 | 1014.4 |
| 20260507041403 | 10 | 79 | 0.0 | 4.8 | 0.00 | 0.05 | 0.00 | 80 | 1014.4 |
| 20260507041303 | 10 | 83 | 0.0 | 4.8 | 0.00 | 0.05 | 0.00 | 80 | 1014.4 |
| 20260507041204 | 10 | 89 | 0.0 | 4.8 | 0.00 | 0.05 | 0.00 | 80 | 1014.3 |
| 20260507041103 | 10 | 93 | 0.0 | 4.8 | 0.00 | 0.05 | 0.00 | 80 | 1014.4 |
| 20260507041016 | 10 | 93 | 0.0 | 4.8 | 0.00 | 0.05 | 0.00 | 80 | 1014.4 |
| 20260507041003 | 10 | 102 | 0.0 | 4.8 | 0.00 | 0.05 | 0.00 | 80 | 1014.2 |
| 20260507040903 | 10 | 113 | 0.0 | 3.2 | 0.00 | 0.05 | 0.00 | 80 | 1014.3 |
| 20260507040703 | 10 | 114 | 0.0 | 3.2 | 0.00 | 0.05 | 0.00 | 80 | 1014.4 |
| 20260507040604 | 10 | 115 | 0.0 | 3.2 | 0.00 | 0.05 | 0.00 | 80 | 1014.3 |
| 20260507040503 | 10 | 117 | 0.0 | 3.2 | 0.00 | 0.05 | 0.00 | 80 | 1014.3 |
| 20260507040412 | 10 | 117 | 0.0 | 3.2 | 0.00 | 0.05 | 0.00 | 80 | 1014.3 |
| 20260507040403 | 10 | 119 | 0.0 | 3.2 | 0.00 | 0.05 | 0.00 | 80 | 1014.2 |
| 20260507040303 | 10 | 122 | 0.0 | 3.2 | 0.00 | 0.05 | 0.00 | 80 | 1014.4 |
| 20260507040003 | 10 | 129 | 0.0 | 3.2 | 0.00 | 0.05 | 0.00 | 80 | 1014.3 |
| 20260507035903 | 10 | 128 | 0.0 | 4.8 | 0.00 | 0.05 | 0.00 | 80 | 1014.3 |
| 20260507035804 | 10 | 123 | 0.0 | 4.8 | 0.00 | 0.05 | 0.00 | 80 | 1014.4 |
| 20260507035703 | 10 | 125 | 0.0 | 4.8 | 0.00 | 0.05 | 0.00 | 80 | 1014.3 |
| 20260507035616 | 10 | 125 | 0.0 | 4.8 | 0.00 | 0.05 | 0.00 | 80 | 1014.3 |
| 20260507035604 | 10 | 123 | 0.0 | 4.8 | 0.00 | 0.05 | 0.00 | 80 | 1014.4 |
| 20260507035503 | 10 | 123 | 0.0 | 4.8 | 0.00 | 0.05 | 0.00 | 80 | 1014.4 |
| 20260507035204 | 10 | 111 | 0.0 | 4.8 | 0.00 | 0.05 | 0.00 | 80 | 1014.4 |
| 20260507035103 | 10 | 109 | 0.0 | 4.8 | 0.00 | 0.05 | 0.00 | 79 | 1014.3 |
| 20260507035003 | 10 | 106 | 0.0 | 4.8 | 0.00 | 0.05 | 0.00 | 79 | 1014.2 |
| 20260507034903 | 10 | 103 | 0.0 | 4.8 | 0.00 | 0.05 | 0.00 | 79 | 1014.1 |
| 20260507034803 | 10 | 103 | 0.0 | 4.8 | 0.00 | 0.05 | 0.00 | 79 | 1014.2 |
| 20260507034703 | 10 | 93 | 0.0 | 3.2 | 0.00 | 0.05 | 0.00 | 79 | 1014.2 |
| 20260507034603 | 10 | 94 | 0.0 | 3.2 | 0.00 | 0.05 | 0.00 | 79 | 1014.2 |
| 20260507034504 | 10 | 97 | 0.0 | 3.2 | 0.00 | 0.05 | 0.00 | 79 | 1014.3 |
| 20260507034404 | 10 | 99 | 0.0 | 3.2 | 0.00 | 0.05 | 0.00 | 79 | 1014.4 |
| 20260507034303 | 10 | 106 | 0.0 | 3.2 | 0.00 | 0.05 | 0.00 | 79 | 1014.3 |
| 20260507034217 | 10 | 106 | 0.0 | 3.2 | 0.00 | 0.05 | 0.00 | 79 | 1014.3 |
| 20260507034203 | 10 | 112 | 0.0 | 3.2 | 0.00 | 0.05 | 0.00 | 79 | 1014.2 |
| 20260507034103 | 10 | 112 | 0.0 | 3.2 | 0.00 | 0.05 | 0.00 | 79 | 1014.2 |
| 20260507033904 | 10 | 115 | 0.0 | 3.2 | 0.00 | 0.05 | 0.00 | 79 | 1014.2 |
| 20260507033804 | 10 | 115 | 0.0 | 3.2 | 0.00 | 0.05 | 0.00 | 79 | 1014.3 |
| 20260507033704 | 10 | 116 | 0.0 | 3.2 | 0.00 | 0.05 | 0.00 | 79 | 1014.3 |
| 20260507033603 | 10 | 116 | 0.0 | 3.2 | 0.00 | 0.05 | 0.00 | 79 | 1014.3 |
| 20260507033503 | 10 | 116 | 0.0 | 3.2 | 0.00 | 0.05 | 0.00 | 79 | 1014.2 |
| 20260507033404 | 10 | 117 | 0.0 | 3.2 | 0.00 | 0.05 | 0.00 | 79 | 1014.3 |
| 20260507033303 | 10 | 119 | 0.0 | 3.2 | 0.00 | 0.05 | 0.00 | 80 | 1014.2 |
| 20260507033212 | 10 | 119 | 0.0 | 3.2 | 0.00 | 0.05 | 0.00 | 80 | 1014.2 |
| 20260507033203 | 10 | 121 | 0.0 | 1.6 | 0.00 | 0.05 | 0.00 | 80 | 1014.2 |
| 20260507033104 | 10 | 120 | 0.0 | 3.2 | 0.00 | 0.05 | 0.00 | 80 | 1014.3 |
| 20260507032913 | 10 | 118 | 0.0 | 3.2 | 0.00 | 0.05 | 0.00 | 80 | 1014.2 |
| 20260507032903 | 10 | 117 | 0.0 | 3.2 | 0.00 | 0.05 | 0.00 | 80 | 1014.4 |
| 20260507032804 | 10 | 119 | 0.0 | 3.2 | 0.00 | 0.05 | 0.00 | 80 | 1014.3 |
| 20260507032603 | 10 | 119 | 0.0 | 3.2 | 0.00 | 0.05 | 0.00 | 80 | 1014.3 |
| 20260507032504 | 10 | 118 | 0.0 | 3.2 | 0.00 | 0.05 | 0.00 | 80 | 1014.3 |
| 20260507032407 | 10 | 118 | 0.0 | 3.2 | 0.00 | 0.05 | 0.00 | 80 | 1014.1 |
| 20260507032305 | 10 | 119 | 0.0 | 3.2 | 0.00 | 0.05 | 0.00 | 80 | 1014.3 |
| 20260507032213 | 10 | 119 | 0.0 | 3.2 | 0.00 | 0.05 | 0.00 | 80 | 1014.3 |
| 20260507032203 | 10 | 120 | 0.0 | 3.2 | 0.00 | 0.05 | 0.00 | 80 | 1014.1 |
| 20260507032117 | 10 | 120 | 0.0 | 3.2 | 0.00 | 0.05 | 0.00 | 80 | 1014.1 |
| 20260507032104 | 10 | 122 | 0.0 | 3.2 | 0.00 | 0.05 | 0.00 | 80 | 1014.2 |
| 20260507031804 | 10 | 122 | 0.0 | 1.6 | 0.00 | 0.05 | 0.00 | 80 | 1014.2 |
| 20260507031703 | 10 | 122 | 0.0 | 1.6 | 0.00 | 0.05 | 0.00 | 80 | 1014.2 |
| 20260507031603 | 10 | 121 | 0.0 | 1.6 | 0.00 | 0.05 | 0.00 | 80 | 1014.2 |
| 20260507031513 | 10 | 121 | 0.0 | 1.6 | 0.00 | 0.05 | 0.00 | 80 | 1014.2 |
| 20260507031503 | 10 | 120 | 0.0 | 1.6 | 0.00 | 0.05 | 0.00 | 80 | 1014.2 |
| 20260507031404 | 10 | 119 | 0.0 | 1.6 | 0.00 | 0.05 | 0.00 | 80 | 1014.3 |
| 20260507031214 | 10 | 116 | 0.0 | 1.6 | 0.00 | 0.05 | 0.00 | 80 | 1014.5 |
| 20260507031203 | 10 | 115 | 0.0 | 1.6 | 0.00 | 0.05 | 0.00 | 80 | 1014.2 |
| 20260507031103 | 10 | 114 | 0.0 | 1.6 | 0.00 | 0.05 | 0.00 | 80 | 1014.2 |
| 20260507030903 | 10 | 112 | 0.0 | 1.6 | 0.00 | 0.05 | 0.00 | 80 | 1014.2 |
| 20260507030803 | 10 | 112 | 0.0 | 1.6 | 0.00 | 0.05 | 0.00 | 80 | 1014.1 |
| 20260507030703 | 10 | 112 | 0.0 | 1.6 | 0.00 | 0.05 | 0.00 | 80 | 1014.3 |
| 20260507030603 | 10 | 110 | 0.0 | 1.6 | 0.00 | 0.05 | 0.00 | 80 | 1014.4 |
| 20260507030503 | 10 | 108 | 0.0 | 1.6 | 0.00 | 0.05 | 0.00 | 80 | 1014.2 |
| 20260507030403 | 10 | 107 | 0.0 | 3.2 | 0.00 | 0.05 | 0.00 | 80 | 1014.3 |
| 20260507030304 | 10 | 107 | 0.0 | 3.2 | 0.00 | 0.05 | 0.00 | 80 | 1014.4 |
| 20260507030215 | 10 | 107 | 0.0 | 3.2 | 0.00 | 0.05 | 0.00 | 80 | 1014.4 |
| 20260507030203 | 10 | 100 | 0.0 | 3.2 | 0.00 | 0.05 | 0.00 | 80 | 1014.3 |
| 20260507025903 | 10 | 91 | 0.0 | 3.2 | 0.00 | 0.05 | 0.00 | 80 | 1014.2 |
| 20260507025803 | 10 | 93 | 0.0 | 3.2 | 0.00 | 0.05 | 0.00 | 80 | 1014.2 |
| 20260507025704 | 10 | 93 | 0.0 | 3.2 | 0.00 | 0.05 | 0.00 | 80 | 1014.1 |
| 20260507025604 | 10 | 93 | 0.0 | 3.2 | 0.00 | 0.05 | 0.00 | 80 | 1014.2 |
| 20260507025503 | 10 | 95 | 0.0 | 3.2 | 0.00 | 0.05 | 0.00 | 80 | 1014.0 |
| 20260507025403 | 10 | 94 | 0.0 | 3.2 | 0.00 | 0.05 | 0.00 | 80 | 1014.1 |
| 20260507025306 | 10 | 94 | 0.0 | 3.2 | 0.00 | 0.05 | 0.00 | 80 | 1014.3 |
| 20260507025203 | 10 | 99 | 0.0 | 3.2 | 0.00 | 0.05 | 0.00 | 80 | 1014.0 |
| 20260507025115 | 10 | 99 | 0.0 | 3.2 | 0.00 | 0.05 | 0.00 | 80 | 1014.0 |
| 20260507025104 | 10 | 99 | 0.0 | 3.2 | 0.00 | 0.05 | 0.00 | 80 | 1014.2 |
| 20260507025003 | 10 | 102 | 0.0 | 3.2 | 0.00 | 0.05 | 0.00 | 80 | 1014.1 |
| 20260507024803 | 10 | 116 | 0.0 | 1.6 | 0.00 | 0.05 | 0.00 | 80 | 1013.9 |
| 20260507024703 | 10 | 111 | 0.0 | 1.6 | 0.00 | 0.05 | 0.00 | 80 | 1014.2 |
| 20260507024604 | 10 | 110 | 0.0 | 1.6 | 0.00 | 0.05 | 0.00 | 80 | 1014.1 |
| 20260507024504 | 10 | 109 | 0.0 | 1.6 | 0.00 | 0.05 | 0.00 | 80 | 1014.1 |
| 20260507024403 | 10 | 106 | 0.0 | 3.2 | 0.00 | 0.05 | 0.00 | 80 | 1014.1 |
| 20260507024313 | 10 | 106 | 0.0 | 3.2 | 0.00 | 0.05 | 0.00 | 80 | 1014.1 |
| 20260507024303 | 10 | 103 | 0.0 | 3.2 | 0.00 | 0.05 | 0.00 | 80 | 1014.1 |
| 20260507024203 | 10 | 101 | 0.0 | 3.2 | 0.00 | 0.05 | 0.00 | 80 | 1013.9 |
| 20260507024003 | 10 | 109 | 0.0 | 3.2 | 0.00 | 0.05 | 0.00 | 80 | 1014.1 |
| 20260507023903 | 10 | 114 | 0.0 | 3.2 | 0.00 | 0.05 | 0.00 | 80 | 1014.1 |
| 20260507023803 | 10 | 120 | 0.0 | 3.2 | 0.00 | 0.05 | 0.00 | 80 | 1014.1 |
| 20260507023704 | 10 | 121 | 0.0 | 3.2 | 0.00 | 0.05 | 0.00 | 80 | 1014.1 |
| 20260507023603 | 10 | 121 | 0.0 | 3.2 | 0.00 | 0.05 | 0.00 | 80 | 1014.0 |
| 20260507023503 | 10 | 123 | 0.0 | 3.2 | 0.00 | 0.05 | 0.00 | 80 | 1013.9 |
| 20260507023403 | 10 | 126 | 0.0 | 3.2 | 0.00 | 0.05 | 0.00 | 80 | 1013.8 |
| 20260507023303 | 10 | 130 | 0.0 | 3.2 | 0.00 | 0.05 | 0.00 | 80 | 1014.1 |
| 20260507023203 | 10 | 134 | 0.0 | 3.2 | 0.00 | 0.05 | 0.00 | 80 | 1014.1 |
| 20260507023103 | 10 | 130 | 0.0 | 3.2 | 0.00 | 0.05 | 0.00 | 80 | 1014.0 |
| 20260507023003 | 10 | 130 | 0.0 | 3.2 | 0.00 | 0.05 | 0.00 | 80 | 1014.1 |
| 20260507022903 | 10 | 129 | 0.0 | 3.2 | 0.00 | 0.05 | 0.00 | 80 | 1014.0 |
| 20260507022804 | 10 | 126 | 0.0 | 3.2 | 0.00 | 0.05 | 0.00 | 80 | 1014.1 |
| 20260507022704 | 10 | 129 | 0.0 | 3.2 | 0.00 | 0.05 | 0.00 | 80 | 1014.1 |
| 20260507022603 | 10 | 131 | 0.0 | 3.2 | 0.00 | 0.05 | 0.00 | 80 | 1014.0 |
| 20260507022504 | 10 | 131 | 0.0 | 3.2 | 0.00 | 0.05 | 0.00 | 80 | 1014.1 |
| 20260507022403 | 10 | 131 | 0.0 | 3.2 | 0.00 | 0.05 | 0.00 | 80 | 1014.1 |
| 20260507022306 | 10 | 130 | 0.0 | 3.2 | 0.00 | 0.05 | 0.00 | 80 | 1014.1 |
| 20260507022203 | 10 | 132 | 0.0 | 3.2 | 0.00 | 0.05 | 0.00 | 80 | 1014.1 |
| 20260507022104 | 10 | 131 | 0.0 | 3.2 | 0.00 | 0.05 | 0.00 | 80 | 1014.2 |
| 20260507022003 | 10 | 128 | 0.0 | 3.2 | 0.00 | 0.05 | 0.00 | 80 | 1014.1 |
| 20260507021915 | 10 | 128 | 0.0 | 3.2 | 0.00 | 0.05 | 0.00 | 80 | 1014.1 |
| 20260507021903 | 10 | 127 | 0.0 | 3.2 | 0.00 | 0.05 | 0.00 | 80 | 1014.2 |
| 20260507021803 | 10 | 126 | 0.0 | 3.2 | 0.00 | 0.05 | 0.00 | 80 | 1014.2 |
| 20260507021615 | 10 | 126 | 0.0 | 3.2 | 0.00 | 0.05 | 0.00 | 80 | 1014.1 |
| 20260507021604 | 10 | 125 | 0.0 | 3.2 | 0.00 | 0.05 | 0.00 | 80 | 1014.0 |
| 20260507021503 | 10 | 125 | 0.0 | 3.2 | 0.00 | 0.05 | 0.00 | 80 | 1014.0 |
| 20260507021316 | 10 | 121 | 0.0 | 3.2 | 0.00 | 0.05 | 0.00 | 80 | 1014.0 |
| 20260507021303 | 10 | 118 | 0.0 | 3.2 | 0.00 | 0.05 | 0.00 | 80 | 1014.0 |
| 20260507021203 | 10 | 116 | 0.0 | 3.2 | 0.00 | 0.05 | 0.00 | 80 | 1014.2 |
| 20260507021003 | 10 | 107 | 0.0 | 4.8 | 0.00 | 0.05 | 0.00 | 80 | 1014.1 |
| 20260507020904 | 10 | 102 | 0.0 | 4.8 | 0.00 | 0.05 | 0.00 | 80 | 1014.1 |
| 20260507020814 | 10 | 102 | 0.0 | 4.8 | 0.00 | 0.05 | 0.00 | 80 | 1014.1 |
| 20260507020803 | 10 | 100 | 0.0 | 4.8 | 0.00 | 0.05 | 0.00 | 80 | 1014.2 |
| 20260507020713 | 10 | 100 | 0.0 | 4.8 | 0.00 | 0.05 | 0.00 | 80 | 1014.2 |
| 20260507020704 | 10 | 98 | 0.0 | 4.8 | 0.00 | 0.05 | 0.00 | 80 | 1014.0 |
| 20260507020403 | 10 | 92 | 0.0 | 4.8 | 0.00 | 0.05 | 0.00 | 80 | 1014.1 |
| 20260507020312 | 10 | 92 | 0.0 | 4.8 | 0.00 | 0.05 | 0.00 | 80 | 1014.1 |
| 20260507020303 | 10 | 93 | 0.0 | 4.8 | 0.00 | 0.05 | 0.00 | 80 | 1014.1 |
| 20260507020203 | 10 | 96 | 0.0 | 4.8 | 0.00 | 0.05 | 0.00 | 80 | 1014.1 |
| 20260507020003 | 10 | 103 | 0.0 | 4.8 | 0.00 | 0.05 | 0.00 | 80 | 1014.0 |
| 20260507015903 | 10 | 107 | 0.0 | 3.2 | 0.00 | 0.05 | 0.00 | 80 | 1014.0 |
| 20260507015815 | 10 | 107 | 0.0 | 3.2 | 0.00 | 0.05 | 0.00 | 80 | 1014.0 |
| 20260507015803 | 10 | 112 | 0.0 | 3.2 | 0.00 | 0.05 | 0.00 | 80 | 1013.8 |
| 20260507015703 | 10 | 116 | 0.0 | 3.2 | 0.00 | 0.05 | 0.00 | 80 | 1014.0 |
| 20260507015504 | 10 | 131 | 0.0 | 3.2 | 0.00 | 0.05 | 0.00 | 80 | 1013.9 |
| 20260507015403 | 10 | 139 | 0.0 | 3.2 | 0.00 | 0.05 | 0.00 | 80 | 1014.1 |
| 20260507015306 | 10 | 139 | 0.0 | 3.2 | 0.00 | 0.05 | 0.00 | 80 | 1013.9 |
| 20260507015203 | 10 | 136 | 0.0 | 3.2 | 0.00 | 0.05 | 0.00 | 80 | 1014.0 |
| 20260507015104 | 10 | 134 | 0.0 | 3.2 | 0.00 | 0.05 | 0.00 | 80 | 1013.9 |
| 20260507015004 | 10 | 131 | 0.0 | 3.2 | 0.00 | 0.05 | 0.00 | 80 | 1014.0 |
| 20260507014903 | 10 | 131 | 0.0 | 3.2 | 0.00 | 0.05 | 0.00 | 80 | 1013.9 |
| 20260507014804 | 10 | 129 | 0.0 | 3.2 | 0.00 | 0.05 | 0.00 | 80 | 1013.9 |
| 20260507014703 | 10 | 124 | 0.0 | 3.2 | 0.00 | 0.05 | 0.00 | 80 | 1014.0 |
| 20260507014604 | 10 | 124 | 1.6 | 3.2 | 0.00 | 0.05 | 0.00 | 79 | 1014.0 |
| 20260507014503 | 10 | 120 | 1.6 | 3.2 | 0.00 | 0.05 | 0.00 | 79 | 1013.8 |
| 20260507014403 | 10 | 115 | 1.6 | 3.2 | 0.00 | 0.05 | 0.00 | 79 | 1014.0 |
| 20260507014303 | 10 | 114 | 1.6 | 3.2 | 0.00 | 0.05 | 0.00 | 79 | 1014.1 |
| 20260507014203 | 10 | 110 | 1.6 | 3.2 | 0.00 | 0.05 | 0.00 | 79 | 1014.0 |
| 20260507014103 | 10 | 107 | 0.0 | 3.2 | 0.00 | 0.05 | 0.00 | 79 | 1014.1 |
| 20260507014015 | 10 | 107 | 0.0 | 3.2 | 0.00 | 0.05 | 0.00 | 79 | 1014.1 |
| 20260507014003 | 10 | 111 | 0.0 | 3.2 | 0.00 | 0.05 | 0.00 | 79 | 1013.8 |
| 20260507013903 | 10 | 114 | 0.0 | 3.2 | 0.00 | 0.05 | 0.00 | 79 | 1014.1 |
| 20260507013704 | 10 | 116 | 1.6 | 3.2 | 0.00 | 0.05 | 0.00 | 79 | 1014.0 |
| 20260507013603 | 10 | 116 | 0.0 | 3.2 | 0.00 | 0.05 | 0.00 | 79 | 1014.0 |
| 20260507013518 | 10 | 116 | 0.0 | 3.2 | 0.00 | 0.05 | 0.00 | 79 | 1014.0 |
| 20260507013503 | 10 | 120 | 0.0 | 3.2 | 0.00 | 0.05 | 0.00 | 79 | 1014.1 |
| 20260507013403 | 10 | 123 | 0.0 | 3.2 | 0.00 | 0.05 | 0.00 | 79 | 1013.9 |
| 20260507013204 | 10 | 120 | 0.0 | 3.2 | 0.00 | 0.05 | 0.00 | 79 | 1014.1 |
| 20260507013103 | 10 | 121 | 0.0 | 3.2 | 0.00 | 0.05 | 0.00 | 79 | 1014.0 |
| 20260507013016 | 10 | 121 | 0.0 | 3.2 | 0.00 | 0.05 | 0.00 | 79 | 1014.0 |
| 20260507013003 | 10 | 120 | 1.6 | 3.2 | 0.00 | 0.05 | 0.00 | 79 | 1014.0 |
| 20260507012903 | 10 | 118 | 1.6 | 4.8 | 0.00 | 0.05 | 0.00 | 79 | 1013.9 |
| 20260507012704 | 10 | 110 | 1.6 | 4.8 | 0.00 | 0.05 | 0.00 | 79 | 1013.8 |
| 20260507012615 | 10 | 110 | 1.6 | 4.8 | 0.00 | 0.05 | 0.00 | 79 | 1013.8 |
| 20260507012604 | 10 | 110 | 1.6 | 4.8 | 0.00 | 0.05 | 0.00 | 79 | 1014.1 |
| 20260507012503 | 10 | 110 | 1.6 | 4.8 | 0.00 | 0.05 | 0.00 | 79 | 1014.1 |
| 20260507012306 | 10 | 109 | 0.0 | 4.8 | 0.00 | 0.05 | 0.00 | 79 | 1013.9 |
| 20260507012203 | 10 | 108 | 0.0 | 4.8 | 0.00 | 0.05 | 0.00 | 79 | 1014.0 |
| 20260507012113 | 10 | 108 | 0.0 | 4.8 | 0.00 | 0.05 | 0.00 | 79 | 1014.0 |
| 20260507012104 | 10 | 104 | 0.0 | 4.8 | 0.00 | 0.05 | 0.00 | 79 | 1014.1 |
| 20260507012003 | 10 | 99 | 0.0 | 4.8 | 0.00 | 0.05 | 0.00 | 79 | 1013.9 |
| 20260507011807 | 10 | 95 | 0.0 | 4.8 | 0.00 | 0.05 | 0.00 | 79 | 1014.1 |
| 20260507011703 | 10 | 90 | 0.0 | 1.6 | 0.00 | 0.05 | 0.00 | 79 | 1014.0 |
| 20260507011616 | 10 | 90 | 0.0 | 1.6 | 0.00 | 0.05 | 0.00 | 79 | 1014.0 |
| 20260507011603 | 10 | 88 | 0.0 | 1.6 | 0.00 | 0.05 | 0.00 | 79 | 1014.0 |
| 20260507011503 | 10 | 84 | 0.0 | 1.6 | 0.00 | 0.05 | 0.00 | 79 | 1014.2 |
| 20260507011317 | 10 | 84 | 0.0 | 1.6 | 0.00 | 0.05 | 0.00 | 79 | 1014.0 |
| 20260507011304 | 10 | 84 | 0.0 | 3.2 | 0.00 | 0.05 | 0.00 | 79 | 1014.2 |
| 20260507011215 | 10 | 84 | 0.0 | 3.2 | 0.00 | 0.05 | 0.00 | 79 | 1014.2 |
| 20260507011203 | 10 | 86 | 0.0 | 3.2 | 0.00 | 0.05 | 0.00 | 79 | 1014.1 |
| 20260507010803 | 10 | 87 | 0.0 | 3.2 | 0.00 | 0.05 | 0.00 | 79 | 1014.1 |
| 20260507010617 | 10 | 89 | 0.0 | 3.2 | 0.00 | 0.05 | 0.00 | 79 | 1014.0 |
| 20260507010516 | 10 | 90 | 0.0 | 3.2 | 0.00 | 0.05 | 0.00 | 79 | 1013.9 |
| 20260507010503 | 10 | 87 | 0.0 | 3.2 | 0.00 | 0.05 | 0.00 | 79 | 1014.0 |
| 20260507010313 | 10 | 84 | 0.0 | 3.2 | 0.00 | 0.05 | 0.00 | 79 | 1013.9 |
| 20260507010203 | 10 | 84 | 0.0 | 3.2 | 0.00 | 0.05 | 0.00 | 79 | 1014.0 |
| 20260507010003 | 10 | 86 | 0.0 | 3.2 | 0.00 | 0.05 | 0.00 | 79 | 1013.9 |
| 20260507005903 | 10 | 87 | 0.0 | 3.2 | 0.00 | 0.05 | 0.00 | 79 | 1013.9 |
| 20260507005803 | 10 | 89 | 0.0 | 3.2 | 0.00 | 0.05 | 0.00 | 79 | 1014.0 |
| 20260507005704 | 10 | 90 | 0.0 | 3.2 | 0.00 | 0.05 | 0.00 | 79 | 1013.8 |
| 20260507005603 | 10 | 92 | 0.0 | 4.8 | 0.00 | 0.05 | 0.00 | 79 | 1013.9 |
| 20260507005517 | 10 | 92 | 0.0 | 4.8 | 0.00 | 0.05 | 0.00 | 79 | 1013.9 |
| 20260507005503 | 10 | 101 | 0.0 | 4.8 | 0.00 | 0.05 | 0.00 | 79 | 1014.0 |
| 20260507005403 | 10 | 105 | 0.0 | 4.8 | 0.00 | 0.05 | 0.00 | 79 | 1014.0 |
| 20260507005204 | 10 | 84 | 1.6 | 4.8 | 0.00 | 0.05 | 0.00 | 79 | 1013.8 |
| 20260507005103 | 10 | 75 | 1.6 | 4.8 | 0.00 | 0.05 | 0.00 | 79 | 1014.0 |
| 20260507005003 | 10 | 71 | 1.6 | 4.8 | 0.00 | 0.05 | 0.00 | 79 | 1014.0 |
| 20260507004903 | 10 | 67 | 1.6 | 4.8 | 0.00 | 0.05 | 0.00 | 79 | 1013.9 |
| 20260507004803 | 10 | 66 | 1.6 | 4.8 | 0.00 | 0.05 | 0.00 | 79 | 1014.0 |
| 20260507004703 | 10 | 62 | 1.6 | 4.8 | 0.00 | 0.05 | 0.00 | 79 | 1014.0 |
| 20260507004603 | 10 | 56 | 1.6 | 4.8 | 0.00 | 0.05 | 0.00 | 79 | 1013.8 |
| 20260507004503 | 10 | 47 | 1.6 | 4.8 | 0.00 | 0.05 | 0.00 | 79 | 1014.1 |
| 20260507004416 | 10 | 47 | 1.6 | 4.8 | 0.00 | 0.05 | 0.00 | 79 | 1014.1 |
| 20260507004404 | 10 | 39 | 1.6 | 4.8 | 0.00 | 0.05 | 0.00 | 79 | 1013.7 |
| 20260507004303 | 10 | 38 | 1.6 | 6.4 | 0.00 | 0.05 | 0.00 | 79 | 1014.1 |
| 20260507004103 | 10 | 53 | 0.0 | 6.4 | 0.00 | 0.05 | 0.00 | 79 | 1013.9 |
| 20260507004003 | 10 | 53 | 0.0 | 6.4 | 0.00 | 0.05 | 0.00 | 80 | 1013.8 |
| 20260507003914 | 10 | 53 | 0.0 | 6.4 | 0.00 | 0.05 | 0.00 | 80 | 1013.8 |
| 20260507003903 | 10 | 54 | 0.0 | 6.4 | 0.00 | 0.05 | 0.00 | 80 | 1013.9 |
| 20260507003804 | 10 | 51 | 0.0 | 6.4 | 0.00 | 0.05 | 0.00 | 80 | 1013.6 |
| 20260507003603 | 10 | 52 | 0.0 | 6.4 | 0.00 | 0.05 | 0.00 | 80 | 1013.8 |
| 20260507003503 | 10 | 54 | 0.0 | 6.4 | 0.00 | 0.05 | 0.00 | 80 | 1013.8 |
| 20260507003403 | 10 | 56 | 0.0 | 6.4 | 0.00 | 0.05 | 0.00 | 80 | 1014.1 |
| 20260507003304 | 10 | 56 | 0.0 | 6.4 | 0.00 | 0.05 | 0.00 | 79 | 1013.8 |
| 20260507003203 | 10 | 61 | 0.0 | 6.4 | 0.00 | 0.05 | 0.00 | 79 | 1013.8 |
| 20260507003103 | 10 | 52 | 0.0 | 4.8 | 0.00 | 0.05 | 0.00 | 79 | 1013.8 |
| 20260507003003 | 10 | 50 | 0.0 | 4.8 | 0.00 | 0.05 | 0.00 | 79 | 1013.9 |
| 20260507002903 | 10 | 48 | 0.0 | 4.8 | 0.00 | 0.05 | 0.00 | 79 | 1013.9 |
| 20260507002803 | 10 | 58 | 0.0 | 4.8 | 0.00 | 0.05 | 0.00 | 79 | 1014.0 |
| 20260507002703 | 10 | 67 | 0.0 | 4.8 | 0.00 | 0.05 | 0.00 | 79 | 1013.9 |
| 20260507002603 | 10 | 71 | 0.0 | 4.8 | 0.00 | 0.05 | 0.00 | 79 | 1014.0 |
| 20260507002504 | 10 | 72 | 0.0 | 4.8 | 0.00 | 0.05 | 0.00 | 79 | 1014.0 |
| 20260507002403 | 10 | 75 | 0.0 | 4.8 | 0.00 | 0.05 | 0.00 | 79 | 1013.9 |
| 20260507002306 | 10 | 84 | 0.0 | 4.8 | 0.00 | 0.05 | 0.00 | 79 | 1013.9 |
| 20260507002203 | 10 | 82 | 0.0 | 3.2 | 0.00 | 0.05 | 0.00 | 79 | 1013.9 |
| 20260507002104 | 10 | 82 | 0.0 | 4.8 | 0.00 | 0.05 | 0.00 | 79 | 1013.9 |
| 20260507002004 | 10 | 88 | 0.0 | 4.8 | 0.00 | 0.05 | 0.00 | 79 | 1013.8 |
| 20260507001903 | 10 | 90 | 0.0 | 4.8 | 0.00 | 0.05 | 0.00 | 79 | 1013.9 |
| 20260507001803 | 10 | 88 | 0.0 | 4.8 | 0.00 | 0.05 | 0.00 | 79 | 1014.1 |
| 20260507001703 | 10 | 83 | 0.0 | 4.8 | 0.00 | 0.05 | 0.00 | 79 | 1014.1 |
| 20260507001603 | 10 | 86 | 0.0 | 4.8 | 0.00 | 0.05 | 0.00 | 79 | 1013.9 |
| 20260507001503 | 10 | 88 | 0.0 | 4.8 | 0.00 | 0.05 | 0.00 | 79 | 1013.9 |
| 20260507001404 | 10 | 90 | 0.0 | 4.8 | 0.00 | 0.05 | 0.00 | 79 | 1014.0 |
| 20260507001304 | 10 | 92 | 0.0 | 6.4 | 0.00 | 0.05 | 0.00 | 79 | 1014.0 |
| 20260507001203 | 10 | 101 | 0.0 | 6.4 | 0.00 | 0.05 | 0.00 | 79 | 1013.9 |
| 20260507001104 | 10 | 104 | 0.0 | 6.4 | 0.00 | 0.05 | 0.00 | 79 | 1014.0 |
| 20260507001003 | 10 | 103 | 0.0 | 6.4 | 0.00 | 0.05 | 0.00 | 79 | 1013.9 |
| 20260507000904 | 10 | 105 | 0.0 | 6.4 | 0.00 | 0.05 | 0.00 | 79 | 1013.9 |
| 20260507000803 | 10 | 108 | 0.0 | 6.4 | 0.00 | 0.05 | 0.00 | 79 | 1014.0 |
| 20260507000714 | 10 | 108 | 0.0 | 6.4 | 0.00 | 0.05 | 0.00 | 79 | 1014.0 |
| 20260507000703 | 10 | 114 | 0.0 | 6.4 | 0.00 | 0.05 | 0.00 | 79 | 1013.9 |
| 20260507000603 | 10 | 116 | 0.0 | 6.4 | 0.00 | 0.05 | 0.00 | 79 | 1013.9 |
| 20260507000405 | 10 | 117 | 0.0 | 6.4 | 0.00 | 0.05 | 0.00 | 79 | 1014.1 |
| 20260507000303 | 10 | 118 | 0.0 | 6.4 | 0.00 | 0.05 | 0.00 | 79 | 1014.0 |
| 20260507000205 | 10 | 118 | 0.0 | 6.4 | 0.00 | 0.05 | 0.00 | 79 | 1014.1 |
| 20260507000003 | 10 | 120 | 0.0 | 3.2 | 0.00 | 0.05 | 0.00 | 79 | 1014.0 |
| 20260506235904 | 10 | 119 | 0.0 | 3.2 | 0.00 | 0.05 | 0.00 | 79 | 1014.2 |
| 20260506235803 | 10 | 114 | 0.0 | 3.2 | 0.00 | 0.05 | 0.00 | 79 | 1014.0 |
| 20260506235704 | 10 | 106 | 0.0 | 3.2 | 0.00 | 0.05 | 0.00 | 79 | 1014.2 |
| 20260506235603 | 10 | 99 | 0.0 | 3.2 | 0.00 | 0.05 | 0.00 | 79 | 1014.1 |
| 20260506235504 | 10 | 101 | 0.0 | 3.2 | 0.00 | 0.05 | 0.00 | 79 | 1013.9 |
| 20260506235403 | 10 | 101 | 0.0 | 3.2 | 0.00 | 0.05 | 0.00 | 79 | 1014.0 |
| 20260506235306 | 10 | 101 | 0.0 | 3.2 | 0.00 | 0.05 | 0.00 | 79 | 1014.0 |
| 20260506235204 | 10 | 98 | 0.0 | 3.2 | 0.00 | 0.05 | 0.00 | 79 | 1014.0 |
| 20260506235103 | 10 | 96 | 0.0 | 3.2 | 0.00 | 0.05 | 0.00 | 79 | 1014.0 |
| 20260506235003 | 10 | 94 | 0.0 | 3.2 | 0.00 | 0.05 | 0.00 | 79 | 1014.0 |
| 20260506234903 | 10 | 95 | 0.0 | 3.2 | 0.00 | 0.05 | 0.00 | 79 | 1014.1 |
| 20260506234804 | 10 | 105 | 0.0 | 3.2 | 0.00 | 0.05 | 0.00 | 79 | 1013.9 |
| 20260506234704 | 10 | 111 | 0.0 | 3.2 | 0.00 | 0.05 | 0.00 | 79 | 1014.0 |
| 20260506234603 | 10 | 120 | 0.0 | 3.2 | 0.00 | 0.05 | 0.00 | 79 | 1014.0 |
| 20260506234503 | 10 | 120 | 0.0 | 3.2 | 0.00 | 0.05 | 0.00 | 79 | 1014.1 |
| 20260506234403 | 10 | 120 | 0.0 | 3.2 | 0.00 | 0.05 | 0.00 | 79 | 1014.0 |
| 20260506234315 | 10 | 120 | 0.0 | 3.2 | 0.00 | 0.05 | 0.00 | 79 | 1014.0 |
| 20260506234303 | 10 | 120 | 0.0 | 4.8 | 0.00 | 0.05 | 0.00 | 79 | 1014.0 |
| 20260506234204 | 10 | 120 | 0.0 | 4.8 | 0.00 | 0.05 | 0.00 | 79 | 1014.0 |
| 20260506234003 | 10 | 115 | 0.0 | 4.8 | 0.00 | 0.05 | 0.00 | 79 | 1014.1 |
| 20260506233915 | 10 | 115 | 0.0 | 4.8 | 0.00 | 0.05 | 0.00 | 79 | 1014.1 |
| 20260506233903 | 10 | 115 | 0.0 | 4.8 | 0.00 | 0.05 | 0.00 | 79 | 1014.0 |
| 20260506233803 | 10 | 113 | 0.0 | 4.8 | 0.00 | 0.05 | 0.00 | 79 | 1013.9 |
| 20260506233604 | 10 | 109 | 1.6 | 6.4 | 0.00 | 0.05 | 0.00 | 79 | 1014.0 |
| 20260506233503 | 10 | 104 | 1.6 | 6.4 | 0.00 | 0.05 | 0.00 | 79 | 1013.8 |
| 20260506233403 | 10 | 100 | 1.6 | 6.4 | 0.00 | 0.05 | 0.00 | 79 | 1013.8 |
| 20260506233316 | 10 | 100 | 1.6 | 6.4 | 0.00 | 0.05 | 0.00 | 79 | 1013.8 |
| 20260506233303 | 10 | 99 | 1.6 | 6.4 | 0.00 | 0.05 | 0.00 | 79 | 1014.0 |
| 20260506233203 | 10 | 100 | 1.6 | 6.4 | 0.00 | 0.05 | 0.00 | 79 | 1013.9 |
| 20260506233003 | 10 | 102 | 1.6 | 6.4 | 0.00 | 0.05 | 0.00 | 79 | 1013.9 |
| 20260506232904 | 10 | 101 | 1.6 | 6.4 | 0.00 | 0.05 | 0.00 | 79 | 1014.0 |
| 20260506232814 | 10 | 101 | 1.6 | 6.4 | 0.00 | 0.05 | 0.00 | 79 | 1014.0 |
| 20260506232803 | 10 | 100 | 1.6 | 6.4 | 0.00 | 0.05 | 0.00 | 79 | 1013.8 |
| 20260506232703 | 10 | 104 | 1.6 | 6.4 | 0.00 | 0.05 | 0.00 | 79 | 1013.9 |
| 20260506232503 | 10 | 115 | 1.6 | 4.8 | 0.00 | 0.05 | 0.00 | 79 | 1013.8 |
| 20260506232404 | 10 | 114 | 1.6 | 4.8 | 0.00 | 0.05 | 0.00 | 79 | 1013.6 |
| 20260506232306 | 10 | 109 | 1.6 | 4.8 | 0.00 | 0.05 | 0.00 | 79 | 1013.7 |
| 20260506232216 | 10 | 109 | 1.6 | 4.8 | 0.00 | 0.05 | 0.00 | 79 | 1013.7 |
| 20260506232203 | 10 | 107 | 1.6 | 4.8 | 0.00 | 0.05 | 0.00 | 79 | 1013.8 |
| 20260506232103 | 10 | 108 | 1.6 | 4.8 | 0.00 | 0.05 | 0.00 | 79 | 1013.8 |
| 20260506232018 | 10 | 108 | 1.6 | 4.8 | 0.00 | 0.05 | 0.00 | 79 | 1013.8 |
| 20260506231917 | 10 | 110 | 1.6 | 4.8 | 0.00 | 0.05 | 0.00 | 79 | 1013.8 |
| 20260506231903 | 10 | 110 | 1.6 | 4.8 | 0.00 | 0.05 | 0.00 | 79 | 1013.7 |
| 20260506231603 | 10 | 109 | 1.6 | 4.8 | 0.00 | 0.05 | 0.00 | 79 | 1013.9 |
| 20260506231504 | 10 | 103 | 1.6 | 4.8 | 0.00 | 0.05 | 0.00 | 79 | 1013.9 |
| 20260506231403 | 10 | 103 | 1.6 | 4.8 | 0.00 | 0.05 | 0.00 | 79 | 1013.9 |
| 20260506231303 | 10 | 101 | 0.0 | 3.2 | 0.00 | 0.05 | 0.00 | 79 | 1014.0 |
| 20260506231203 | 10 | 95 | 0.0 | 3.2 | 0.00 | 0.05 | 0.00 | 79 | 1013.9 |
| 20260506231103 | 10 | 87 | 1.6 | 3.2 | 0.00 | 0.05 | 0.00 | 79 | 1013.7 |
| 20260506231003 | 10 | 79 | 0.0 | 3.2 | 0.00 | 0.05 | 0.00 | 79 | 1013.9 |
| 20260506230903 | 10 | 79 | 0.0 | 3.2 | 0.00 | 0.05 | 0.00 | 79 | 1013.9 |
| 20260506230803 | 10 | 82 | 0.0 | 3.2 | 0.00 | 0.05 | 0.00 | 79 | 1013.9 |
| 20260506230703 | 10 | 82 | 0.0 | 3.2 | 0.00 | 0.05 | 0.00 | 79 | 1014.0 |
| 20260506230603 | 10 | 79 | 0.0 | 3.2 | 0.00 | 0.05 | 0.00 | 79 | 1013.9 |
| 20260506230503 | 10 | 79 | 1.6 | 3.2 | 0.00 | 0.05 | 0.00 | 79 | 1013.8 |
| 20260506230403 | 10 | 82 | 1.6 | 3.2 | 0.00 | 0.05 | 0.00 | 79 | 1013.8 |
| 20260506230303 | 10 | 89 | 0.0 | 3.2 | 0.00 | 0.05 | 0.00 | 79 | 1013.9 |
| 20260506230212 | 10 | 89 | 0.0 | 3.2 | 0.00 | 0.05 | 0.00 | 79 | 1013.9 |
| 20260506230103 | 10 | 97 | 0.0 | 3.2 | 0.00 | 0.05 | 0.00 | 79 | 1013.9 |
| 20260506230008 | 10 | 97 | 0.0 | 3.2 | 0.00 | 0.05 | 0.00 | 79 | 1013.9 |
| 20260506225903 | 10 | 98 | 0.0 | 3.2 | 0.00 | 0.05 | 0.05 | 79 | 1013.9 |
| 20260506225703 | 10 | 92 | 0.0 | 3.2 | 0.00 | 0.05 | 0.05 | 79 | 1013.9 |
| 20260506225603 | 10 | 93 | 0.0 | 3.2 | 0.00 | 0.05 | 0.05 | 79 | 1013.8 |
| 20260506225504 | 10 | 94 | 0.0 | 3.2 | 0.00 | 0.05 | 0.05 | 79 | 1013.9 |
| 20260506225403 | 10 | 94 | 0.0 | 3.2 | 0.00 | 0.05 | 0.05 | 79 | 1014.0 |
| 20260506225315 | 10 | 94 | 0.0 | 3.2 | 0.00 | 0.05 | 0.05 | 79 | 1014.0 |
| 20260506225305 | 10 | 95 | 0.0 | 4.8 | 0.00 | 0.05 | 0.05 | 79 | 1013.9 |
| 20260506225203 | 10 | 96 | 1.6 | 4.8 | 0.00 | 0.05 | 0.05 | 79 | 1013.8 |
| 20260506225003 | 10 | 105 | 1.6 | 4.8 | 0.00 | 0.05 | 0.05 | 79 | 1013.9 |
| 20260506224903 | 10 | 102 | 1.6 | 4.8 | 0.00 | 0.05 | 0.05 | 79 | 1013.9 |
| 20260506224803 | 10 | 106 | 1.6 | 4.8 | 0.00 | 0.05 | 0.05 | 79 | 1013.7 |
| 20260506224703 | 10 | 107 | 1.6 | 4.8 | 0.00 | 0.05 | 0.05 | 79 | 1013.9 |
| 20260506224603 | 10 | 111 | 1.6 | 4.8 | 0.00 | 0.05 | 0.05 | 79 | 1013.8 |
| 20260506224514 | 10 | 111 | 1.6 | 4.8 | 0.00 | 0.05 | 0.05 | 79 | 1013.8 |
| 20260506224503 | 10 | 112 | 1.6 | 4.8 | 0.00 | 0.05 | 0.05 | 79 | 1013.8 |
| 20260506224403 | 10 | 113 | 1.6 | 4.8 | 0.00 | 0.05 | 0.05 | 79 | 1013.9 |
| 20260506224203 | 10 | 115 | 1.6 | 4.8 | 0.00 | 0.05 | 0.05 | 79 | 1013.8 |
| 20260506224103 | 10 | 106 | 1.6 | 3.2 | 0.00 | 0.05 | 0.05 | 79 | 1013.8 |
| 20260506224003 | 10 | 110 | 0.0 | 3.2 | 0.00 | 0.05 | 0.05 | 79 | 1013.8 |
| 20260506223915 | 10 | 110 | 0.0 | 3.2 | 0.00 | 0.05 | 0.05 | 79 | 1013.8 |
| 20260506223903 | 10 | 118 | 0.0 | 3.2 | 0.00 | 0.05 | 0.05 | 79 | 1013.7 |
| 20260506223803 | 10 | 118 | 0.0 | 3.2 | 0.00 | 0.05 | 0.05 | 79 | 1013.8 |
| 20260506223603 | 10 | 113 | 0.0 | 3.2 | 0.00 | 0.05 | 0.05 | 79 | 1013.7 |
| 20260506223503 | 10 | 110 | 0.0 | 4.8 | 0.00 | 0.05 | 0.05 | 79 | 1014.0 |
| 20260506223403 | 10 | 107 | 1.6 | 4.8 | 0.00 | 0.05 | 0.05 | 79 | 1013.7 |
| 20260506223317 | 10 | 107 | 1.6 | 4.8 | 0.00 | 0.05 | 0.05 | 79 | 1013.7 |
| 20260506223303 | 10 | 109 | 1.6 | 4.8 | 0.00 | 0.05 | 0.05 | 79 | 1013.7 |
| 20260506223203 | 10 | 107 | 1.6 | 4.8 | 0.00 | 0.05 | 0.05 | 79 | 1013.8 |
| 20260506223003 | 10 | 104 | 1.6 | 4.8 | 0.00 | 0.05 | 0.05 | 79 | 1013.6 |
| 20260506222904 | 10 | 99 | 1.6 | 4.8 | 0.00 | 0.05 | 0.05 | 79 | 1013.6 |
| 20260506222803 | 10 | 94 | 1.6 | 4.8 | 0.00 | 0.05 | 0.05 | 79 | 1013.7 |
| 20260506222703 | 10 | 89 | 1.6 | 4.8 | 0.00 | 0.05 | 0.05 | 78 | 1013.7 |
| 20260506222603 | 10 | 91 | 1.6 | 4.8 | 0.00 | 0.05 | 0.05 | 78 | 1013.7 |
| 20260506222503 | 10 | 98 | 1.6 | 4.8 | 0.00 | 0.05 | 0.05 | 78 | 1013.8 |
| 20260506222403 | 10 | 95 | 1.6 | 4.8 | 0.00 | 0.05 | 0.05 | 78 | 1013.6 |
| 20260506222305 | 10 | 86 | 1.6 | 4.8 | 0.00 | 0.05 | 0.05 | 78 | 1013.6 |
| 20260506222203 | 10 | 86 | 0.0 | 4.8 | 0.00 | 0.05 | 0.05 | 78 | 1013.7 |
| 20260506222103 | 10 | 83 | 0.0 | 4.8 | 0.00 | 0.05 | 0.05 | 78 | 1013.7 |
| 20260506222004 | 10 | 84 | 0.0 | 4.8 | 0.00 | 0.05 | 0.05 | 78 | 1013.8 |
| 20260506221904 | 10 | 88 | 0.0 | 4.8 | 0.00 | 0.05 | 0.05 | 78 | 1013.8 |
| 20260506221803 | 10 | 92 | 0.0 | 4.8 | 0.00 | 0.05 | 0.05 | 78 | 1013.7 |
| 20260506221714 | 10 | 92 | 0.0 | 4.8 | 0.00 | 0.05 | 0.05 | 78 | 1013.7 |
| 20260506221703 | 10 | 96 | 0.0 | 4.8 | 0.00 | 0.05 | 0.05 | 79 | 1013.6 |
| 20260506221603 | 10 | 90 | 0.0 | 4.8 | 0.00 | 0.05 | 0.05 | 79 | 1013.6 |
| 20260506221415 | 10 | 83 | 0.0 | 4.8 | 0.00 | 0.05 | 0.05 | 79 | 1013.9 |
| 20260506221403 | 10 | 80 | 0.0 | 4.8 | 0.00 | 0.05 | 0.05 | 79 | 1013.9 |
| 20260506221303 | 10 | 87 | 0.0 | 4.8 | 0.00 | 0.05 | 0.05 | 79 | 1013.6 |
| 20260506221103 | 10 | 91 | 0.0 | 4.8 | 0.00 | 0.05 | 0.05 | 79 | 1013.7 |
| 20260506221003 | 10 | 91 | 0.0 | 4.8 | 0.00 | 0.05 | 0.05 | 79 | 1013.7 |
| 20260506220903 | 10 | 94 | 0.0 | 4.8 | 0.00 | 0.05 | 0.05 | 79 | 1013.8 |
| 20260506220803 | 10 | 98 | 0.0 | 4.8 | 0.00 | 0.05 | 0.05 | 79 | 1013.7 |
| 20260506220704 | 10 | 99 | 1.6 | 4.8 | 0.00 | 0.05 | 0.05 | 79 | 1013.7 |
| 20260506220614 | 10 | 99 | 1.6 | 4.8 | 0.00 | 0.05 | 0.05 | 79 | 1013.7 |
| 20260506220603 | 10 | 100 | 1.6 | 6.4 | 0.00 | 0.05 | 0.05 | 79 | 1013.6 |
| 20260506220503 | 10 | 89 | 1.6 | 6.4 | 0.00 | 0.05 | 0.05 | 79 | 1013.7 |
| 20260506220303 | 10 | 87 | 1.6 | 6.4 | 0.00 | 0.05 | 0.05 | 79 | 1013.6 |
| 20260506220203 | 10 | 80 | 1.6 | 6.4 | 0.00 | 0.05 | 0.05 | 79 | 1013.5 |
| 20260506220003 | 10 | 74 | 1.6 | 6.4 | 0.00 | 0.05 | 0.05 | 79 | 1013.6 |
| 20260506215903 | 10 | 76 | 1.6 | 6.4 | 0.00 | 0.05 | 0.05 | 79 | 1013.7 |
| 20260506215803 | 10 | 74 | 1.6 | 6.4 | 0.00 | 0.05 | 0.05 | 79 | 1013.5 |
| 20260506215704 | 10 | 74 | 1.6 | 6.4 | 0.00 | 0.05 | 0.05 | 79 | 1013.5 |
| 20260506215604 | 10 | 76 | 1.6 | 6.4 | 0.00 | 0.05 | 0.05 | 79 | 1013.7 |
| 20260506215503 | 10 | 82 | 1.6 | 6.4 | 0.00 | 0.05 | 0.05 | 79 | 1013.6 |
| 20260506215417 | 10 | 82 | 1.6 | 6.4 | 0.00 | 0.05 | 0.05 | 79 | 1013.6 |
| 20260506215403 | 10 | 86 | 1.6 | 4.8 | 0.00 | 0.05 | 0.05 | 79 | 1013.6 |
| 20260506215306 | 10 | 84 | 1.6 | 4.8 | 0.00 | 0.05 | 0.05 | 79 | 1013.6 |
| 20260506215103 | 10 | 89 | 1.6 | 4.8 | 0.00 | 0.05 | 0.05 | 79 | 1013.7 |
| 20260506215003 | 10 | 93 | 1.6 | 4.8 | 0.00 | 0.05 | 0.05 | 78 | 1013.5 |
| 20260506214903 | 10 | 91 | 1.6 | 4.8 | 0.00 | 0.05 | 0.05 | 78 | 1013.5 |
| 20260506214814 | 10 | 91 | 1.6 | 4.8 | 0.00 | 0.05 | 0.05 | 78 | 1013.5 |
| 20260506214803 | 10 | 88 | 1.6 | 4.8 | 0.00 | 0.05 | 0.05 | 78 | 1013.5 |
| 20260506214703 | 10 | 92 | 1.6 | 4.8 | 0.00 | 0.05 | 0.05 | 78 | 1013.5 |
| 20260506214503 | 10 | 83 | 1.6 | 4.8 | 0.00 | 0.05 | 0.05 | 78 | 1013.5 |
| 20260506214404 | 10 | 85 | 1.6 | 4.8 | 0.00 | 0.05 | 0.05 | 78 | 1013.3 |
| 20260506214303 | 10 | 89 | 1.6 | 4.8 | 0.00 | 0.05 | 0.05 | 78 | 1013.6 |
| 20260506214215 | 10 | 89 | 1.6 | 4.8 | 0.00 | 0.05 | 0.05 | 78 | 1013.6 |
| 20260506214203 | 10 | 91 | 0.0 | 4.8 | 0.00 | 0.05 | 0.05 | 78 | 1013.6 |
| 20260506214103 | 10 | 93 | 1.6 | 4.8 | 0.00 | 0.05 | 0.05 | 78 | 1013.6 |
| 20260506213903 | 10 | 80 | 1.6 | 6.4 | 0.00 | 0.05 | 0.05 | 79 | 1013.6 |
| 20260506213815 | 10 | 80 | 1.6 | 6.4 | 0.00 | 0.05 | 0.05 | 79 | 1013.6 |
| 20260506213803 | 10 | 78 | 1.6 | 6.4 | 0.00 | 0.05 | 0.05 | 78 | 1013.5 |
| 20260506213703 | 10 | 68 | 1.6 | 6.4 | 0.00 | 0.05 | 0.05 | 78 | 1013.5 |